GFSFLT1_850_spd_003.txt.gz
Wind_Speed
4 2 3 2 2 3 3 6 7 7 7 7 6 6 9 12 6 7 8 3 5 7 7 8 8 9 8 7 8 8 8 6 7
5 3 1 0 1 0 2 5 6 8 8 8 6 7 9 11 5 5 4 1 5 6 8 8 7 8 8 10 8 9 9 8 7
4 2 2 3 2 2 2 4 7 8 8 8 8 9 10 8 4 5 5 3 4 5 6 7 6 6 7 8 8 8 9 9 9
5 3 6 7 6 5 4 5 8 9 9 9 9 9 8 10 5 4 0 3 3 3 5 5 4 4 5 6 7 7 7 7 8
9 7 8 8 7 7 6 7 10 11 10 10 10 10 9 6 4 5 8 4 3 2 2 2 3 3 4 5 5 5 5 6 6
8 10 10 10 9 8 7 8 9 11 10 10 10 11 10 5 5 5 7 6 3 2 1 1 2 3 4 4 4 4 5 5 6
8 15 10 10 9 8 9 9 10 10 7 8 10 11 6 9 9 8 10 8 6 5 4 3 4 5 5 6 5 6 6 6 7
12 10 10 9 9 9 10 11 12 11 9 10 9 10 9 10 11 12 13 12 10 8 7 7 8 8 8 8 9 8 8 9 9
9 9 10 9 10 9 12 10 11 15 14 13 12 13 12 14 15 14 16 16 15 13 12 12 12 13 13 13 13 13 12 12 13
10 11 11 11 10 10 12 13 12 13 13 14 16 18 19 18 19 19 20 19 19 19 17 16 16 17 17 17 18 18 18 17 17
14 14 14 14 13 13 14 14 14 15 15 15 17 20 22 23 23 23 22 23 23 23 22 21 20 21 22 22 22 22 21 22 22
18 17 17 17 15 15 15 16 17 17 17 18 18 19 21 22 25 27 28 28 28 27 27 25 25 25 26 26 26 25 24 24 24
21 21 21 19 17 16 17 17 17 19 20 21 21 20 22 24 23 25 29 31 31 32 31 29 28 28 28 29 29 27 26 27 27
24 24 24 22 21 21 20 19 20 20 22 22 23 23 24 24 26 29 30 32 34 35 35 35 32 31 32 33 32 30 29 28 26
28 27 26 25 26 27 25 26 24 23 22 20 23 25 27 27 30 31 30 35 36 37 38 37 35 34 32 31 31 30 28 26 25
31 32 30 30 30 30 29 27 27 27 24 21 26 26 29 30 34 36 37 40 37 36 36 38 33 29 24 22 21 21 22 22 24
33 34 34 33 32 32 31 30 30 31 26 27 24 23 24 29 31 32 33 35 31 34 34 30 25 25 24 22 17 18 20 24 27
33 34 34 34 33 36 34 33 33 34 32 32 28 12 17 18 20 28 29 24 23 23 22 22 23 22 22 20 21 22 24 26 28
32 31 33 34 35 36 34 33 34 35 37 31 36 39 32 16 14 17 22 22 20 21 25 23 21 24 24 25 25 24 25 26 25
31 31 31 33 34 35 34 32 33 35 38 39 33 37 41 41 37 29 32 28 28 29 27 29 25 23 25 28 27 26 26 25 24

GFSFLT1_850_spd_009.txt.gz
Wind_Speed
3 4 1 3 3 3 6 8 6 8 9 9 10 12 12 12 14 7 7 4 3 3 3 2 3 3 3 3 4 4 3 3 3
4 4 2 2 3 4 6 8 8 6 8 8 11 13 14 14 11 10 9 5 3 3 2 2 2 2 3 3 4 4 5 5 5
3 2 2 3 4 4 4 6 8 8 9 9 11 14 14 14 11 11 8 6 4 3 2 1 1 2 2 2 3 3 3 3 3
5 5 5 7 6 6 5 6 8 10 10 11 12 15 15 15 13 11 9 7 6 5 4 2 1 1 1 0 1 1 1 1 2
5 7 8 8 8 8 8 9 10 11 12 12 13 14 16 15 14 13 11 9 8 8 6 5 4 4 3 2 2 2 2 1 2
7 7 8 9 9 10 11 11 12 12 13 13 14 16 16 16 14 15 12 11 11 11 10 9 8 7 6 6 5 5 5 5 4
9 7 10 11 12 13 12 11 12 13 15 16 17 17 17 18 17 17 15 15 14 14 13 12 12 11 10 10 9 9 9 9 8
8 10 14 15 14 12 13 13 13 14 16 18 18 18 20 21 20 20 19 19 18 18 18 17 16 15 15 14 14 14 14 13 13
10 12 13 13 11 11 13 14 14 16 18 20 21 22 22 24 24 23 23 23 22 22 22 22 21 20 19 19 18 18 19 19 18
14 15 15 14 14 13 15 14 16 18 20 21 23 24 25 26 27 27 28 28 27 26 26 27 26 26 24 24 23 23 23 23 24
18 18 18 18 18 17 17 18 18 18 21 22 22 25 28 29 30 31 32 32 32 32 31 31 31 30 29 29 28 28 27 27 27
20 21 22 22 21 21 22 22 22 23 22 26 26 27 28 30 32 33 35 36 37 36 36 36 35 35 34 34 33 32 32 32 31
24 24 24 25 25 25 26 25 26 28 27 28 28 29 30 32 34 35 36 37 39 40 41 40 40 40 39 37 36 35 35 35 35
28 29 29 29 29 30 30 30 30 31 31 31 30 32 34 36 37 39 40 41 41 42 43 42 42 42 42 40 40 38 37 38 38
32 33 33 34 33 35 35 35 34 34 35 32 35 34 35 36 38 40 39 40 41 43 43 43 45 45 44 44 43 43 41 40 39
35 36 37 38 37 38 38 38 38 39 38 35 38 38 38 41 43 42 42 43 42 44 44 46 47 47 46 46 45 44 41 37 39
37 37 39 40 40 40 41 41 41 43 42 40 38 33 37 44 42 40 41 45 45 47 45 46 47 46 45 43 42 40 36 35 33
33 34 36 38 40 42 43 43 43 45 44 42 33 13 19 23 27 21 22 24 30 33 33 36 36 37 38 38 36 34 31 32 32
29 31 34 34 36 38 40 43 44 42 45 42 46 47 44 30 26 31 25 25 30 34 34 33 33 34 37 34 33 32 32 31 32
23 26 29 33 34 35 37 39 42 43 43 44 43 42 45 49 43 37 45 38 41 39 39 41 42 41 38 36 37 35 35 32 34

GFSFLT1_850_spd_012.txt.gz
Wind_Speed
4 2 2 4 5 4 7 9 7 8 9 9 11 14 14 14 11 7 4 4 5 4 3 3 2 2 1 1 1 1 1 1 2
5 4 5 5 5 5 6 9 10 8 9 9 12 15 15 14 15 10 8 8 7 6 4 3 3 2 1 1 1 0 1 1 1
8 5 5 6 5 6 7 8 10 11 10 9 13 16 16 16 14 12 10 9 9 8 6 5 4 3 3 3 2 2 1 1 1
8 7 7 7 7 8 8 9 10 11 12 12 14 17 17 17 16 14 13 12 11 10 9 8 7 6 4 4 4 4 3 3 3
9 9 9 10 10 10 11 11 11 12 13 14 15 17 19 19 18 16 15 14 13 13 11 10 10 8 7 6 7 6 6 6 5
9 9 8 9 11 11 13 13 13 14 15 16 16 18 20 21 21 20 18 16 16 16 14 14 13 11 10 10 10 9 9 8 9
10 9 8 9 11 12 14 14 15 16 16 17 19 20 20 23 23 23 21 20 19 19 18 17 16 15 15 14 13 13 13 13 12
8 9 10 10 11 12 13 15 16 16 17 18 20 21 22 24 25 25 24 23 22 22 22 22 21 20 19 18 18 17 17 17 17
9 11 11 12 13 14 14 14 15 17 18 19 21 23 24 26 27 28 28 28 27 26 27 26 26 25 24 23 23 22 22 22 21
13 13 15 15 15 17 17 17 17 18 18 21 23 25 26 28 29 30 31 32 31 31 31 31 31 30 29 28 28 28 27 27 26
16 17 17 19 19 19 20 20 20 21 21 22 24 26 28 29 31 33 34 36 37 36 36 36 34 33 33 33 33 33 32 31 31
20 22 23 24 24 25 25 26 26 27 26 27 26 27 29 31 32 34 36 38 39 41 41 40 40 39 38 36 36 36 37 36 35
26 28 30 30 29 30 31 31 31 32 32 32 31 31 32 33 35 36 37 39 41 42 44 45 45 45 44 42 39 38 39 39 40
29 31 32 33 33 34 35 36 36 38 38 37 36 36 36 37 38 41 41 42 42 43 44 45 46 46 46 46 43 40 39 41 41
31 32 34 35 36 37 38 39 40 41 43 43 42 42 42 41 43 44 43 44 45 45 46 46 46 46 46 47 47 45 44 44 44
33 35 36 36 37 38 38 39 40 42 43 44 47 48 47 48 49 48 48 48 48 48 46 45 46 46 45 45 46 47 46 45 46
28 30 32 34 36 36 37 39 40 42 42 43 40 32 39 45 45 38 34 32 34 39 40 41 42 45 46 45 45 46 45 44 44
26 28 31 33 34 36 37 37 38 42 40 42 36 19 21 32 36 31 28 32 34 36 33 34 34 36 38 39 40 40 40 40 41
23 22 23 25 27 33 35 38 39 40 41 38 41 45 46 31 31 38 37 33 38 40 42 42 41 41 39 38 36 34 36 36 36
16 17 18 20 21 24 27 32 38 41 43 42 42 43 43 47 45 36 44 43 40 42 42 46 46 44 40 42 44 43 39 38 36

GFSFLT1_850_spd_015.txt.gz
Wind_Speed
8 6 5 5 6 4 6 9 7 7 15 12 10 13 14 12 10 7 8 6 5 6 6 6 6 5 5 4 3 3 2 1 2
8 7 7 6 6 6 7 8 10 10 11 11 12 15 17 16 15 12 10 8 8 8 8 7 6 6 5 4 4 3 2 2 2
12 10 8 7 6 7 8 9 10 12 11 10 12 15 18 17 16 15 13 11 10 11 10 9 8 7 7 6 6 5 4 4 4
13 11 10 8 7 8 9 10 11 12 13 13 13 15 18 18 18 17 16 14 12 13 13 12 11 10 9 9 8 7 7 6 6
12 12 10 10 10 10 11 12 13 14 14 14 14 16 19 22 20 19 18 17 16 16 16 14 14 14 13 11 10 10 9 9 8
10 10 10 10 9 10 12 14 15 16 16 15 16 18 20 23 23 23 21 20 20 19 19 18 18 17 16 15 14 13 13 12 11
11 10 10 10 10 11 13 15 16 17 16 17 19 21 21 24 26 26 24 24 23 22 22 23 22 21 20 19 18 18 17 16 16
10 10 10 11 11 12 13 14 15 16 17 18 20 22 23 25 26 28 29 28 27 27 26 26 26 25 24 24 23 22 21 21 20
11 12 12 14 14 15 15 16 17 18 18 20 21 23 24 26 28 30 30 32 32 31 30 29 30 30 29 29 28 27 26 26 25
15 16 17 18 18 19 19 20 21 21 21 21 23 24 25 28 29 31 31 33 36 36 35 32 32 33 33 32 33 33 32 31 30
19 20 22 22 22 22 24 25 26 27 26 26 26 27 27 29 30 33 34 35 37 39 39 38 35 35 35 36 37 37 36 36 35
21 23 25 26 26 27 28 30 31 32 32 33 32 31 32 33 33 34 36 37 37 40 42 43 43 42 41 39 39 40 40 40 39
25 27 28 29 29 30 32 33 35 37 37 38 38 37 37 38 38 38 39 40 39 40 41 44 45 46 46 43 43 43 43 44 44
26 29 30 31 31 32 34 36 37 39 41 41 41 42 42 42 42 43 43 44 44 44 44 45 45 46 48 48 46 46 47 47 47
27 30 31 32 34 35 36 36 37 38 40 42 44 44 45 45 45 46 47 48 48 47 47 48 48 47 48 48 49 50 50 49 50
30 32 33 32 33 34 37 39 39 40 39 41 41 41 42 44 45 43 43 43 42 41 41 42 45 48 48 47 47 47 48 48 49
28 28 29 30 32 32 33 35 38 41 39 41 38 29 32 35 38 38 37 38 35 34 32 35 34 32 35 37 38 40 42 44 47
20 22 23 24 25 28 29 30 32 35 34 37 38 21 20 30 37 39 42 42 41 41 40 38 39 38 37 37 37 37 37 37 39
16 17 19 20 22 23 24 23 25 28 34 33 36 39 43 31 33 33 35 44 44 47 48 47 44 43 42 42 40 37 39 39 38
14 15 17 19 20 21 22 24 25 24 29 33 35 37 43 43 42 38 34 36 44 45 46 46 46 48 47 45 45 39 35 34 39

GFSFLT1_850_spd_018.txt.gz
Wind_Speed
6 7 7 7 7 6 5 9 7 8 11 11 10 12 14 13 10 7 7 8 6 7 6 7 7 7 8 7 6 6 4 4 4
10 6 8 8 7 6 6 8 10 10 10 12 14 13 16 15 14 11 10 10 8 8 8 9 9 9 8 7 7 6 5 4 4
8 9 9 8 7 7 8 8 9 10 11 11 12 12 16 17 17 15 15 13 12 11 12 11 11 10 10 9 9 8 7 7 6
8 10 10 9 8 10 10 11 11 12 12 13 13 13 16 18 19 18 16 16 15 13 15 15 13 13 12 11 11 11 10 9 9
9 11 11 10 10 11 11 12 13 14 14 14 15 15 17 20 20 20 20 18 19 18 17 18 17 16 15 15 14 14 13 12 12
9 10 10 10 11 11 11 13 14 15 16 16 16 17 19 21 23 23 23 22 21 21 20 20 21 20 19 18 18 18 17 16 15
10 9 11 11 11 12 12 14 15 16 16 16 17 19 20 22 24 26 26 27 26 25 25 24 24 24 23 23 22 22 21 20 19
11 11 11 12 12 13 14 15 16 17 18 17 18 19 21 23 25 27 28 29 30 30 29 28 26 27 28 27 27 26 26 25 24
12 13 13 14 14 15 16 18 18 19 20 21 21 21 22 24 25 27 28 30 32 33 34 33 30 30 31 32 31 31 31 30 29
14 14 16 17 18 19 20 21 22 24 24 25 26 26 25 25 26 28 28 30 33 34 36 38 37 34 33 35 36 36 35 35 34
17 18 19 21 21 23 24 26 27 28 29 30 30 31 30 30 30 30 31 31 33 36 38 39 41 40 37 37 39 41 41 39 38
20 21 22 23 24 24 26 28 30 32 33 34 35 34 34 34 34 34 35 35 35 36 38 40 42 43 42 40 41 43 44 44 43
21 22 23 25 26 27 29 31 33 34 36 37 37 38 37 37 37 38 39 40 41 42 40 41 42 43 45 44 43 45 46 47 47
24 25 26 28 31 32 34 35 36 37 39 41 40 40 40 39 39 40 39 39 41 44 45 44 44 45 45 46 47 47 48 49 50
26 26 27 28 30 32 32 33 34 36 37 38 40 40 40 38 39 40 39 39 37 38 37 39 43 45 46 48 48 48 49 50 51
23 25 26 27 28 29 29 31 33 34 35 37 40 40 39 38 37 38 38 36 41 38 37 38 38 37 35 32 36 42 47 49 50
16 19 21 22 24 26 26 26 27 29 29 31 35 27 28 32 30 32 40 41 40 40 40 38 39 38 37 37 34 30 31 33 38
15 16 18 19 20 22 23 24 24 26 26 27 28 20 23 33 36 32 38 39 41 40 44 43 43 43 45 42 40 37 35 35 36
14 16 17 19 21 22 23 24 24 24 26 25 27 31 36 33 36 32 34 37 42 42 43 45 45 43 43 45 45 43 42 41 41
19 21 23 24 25 26 27 27 28 27 27 26 27 29 32 33 31 38 31 35 35 38 41 43 45 44 45 44 47 43 41 40 42

GFSFLT1_850_spd_021.txt.gz
Wind_Speed
3 4 4 5 5 5 4 5 6 7 10 9 8 11 12 13 11 9 8 9 9 8 10 9 9 9 10 10 9 8 7 7 7
5 4 5 6 5 5 4 5 9 10 9 10 13 13 14 15 13 12 11 10 10 10 11 10 10 10 10 10 9 8 8 7 7
6 7 7 7 7 6 6 7 7 8 9 10 12 13 12 16 15 15 14 13 13 13 11 14 12 12 12 12 11 10 9 9 9
5 8 9 9 8 8 9 10 11 11 10 10 11 13 13 16 17 17 17 15 15 16 14 16 16 15 14 14 14 12 12 11 11
8 10 11 11 10 8 8 11 12 12 12 13 13 14 16 17 18 19 20 19 19 19 20 16 19 19 18 17 16 16 16 15 14
8 8 10 10 10 10 9 9 12 13 13 14 15 15 17 19 20 21 21 22 23 22 22 22 21 22 23 21 21 20 20 19 19
9 9 10 10 11 11 12 12 13 14 15 15 15 16 18 19 20 22 22 24 26 27 27 26 25 24 25 26 25 24 24 23 23
9 10 10 11 12 12 13 14 15 16 17 17 18 18 18 19 21 22 22 25 27 29 31 31 30 28 28 29 29 28 28 28 27
10 11 12 13 13 15 16 17 18 19 20 21 22 22 22 22 23 24 22 24 27 30 32 33 34 34 32 31 32 34 33 33 32
12 13 14 15 16 17 18 20 21 23 23 24 26 26 27 27 28 29 28 26 27 29 32 35 36 37 36 36 36 37 38 40 37
14 15 16 16 17 18 20 23 24 26 27 28 29 29 30 31 32 33 33 32 31 32 33 35 37 39 39 39 40 40 39 43 43
16 17 17 18 20 21 23 25 27 29 30 32 31 32 33 34 33 34 35 36 36 35 36 38 39 40 41 41 41 44 44 45 46
19 21 21 23 24 25 26 27 29 30 31 32 33 34 34 34 35 35 36 36 36 37 37 37 40 42 44 44 44 45 46 47 49
21 22 23 24 26 26 26 28 30 31 32 34 34 35 36 37 37 38 37 36 35 35 36 34 33 36 40 45 47 48 49 50 50
20 21 21 21 23 24 25 27 27 29 31 33 34 35 36 37 38 37 36 35 35 34 34 36 37 35 33 35 37 44 51 53 53
12 13 14 17 19 21 22 24 25 27 28 30 33 31 36 26 29 30 27 30 34 40 37 38 38 37 37 37 34 37 38 38 44
12 13 15 16 18 19 21 23 25 26 25 23 29 22 29 25 21 35 37 39 36 39 38 38 41 40 43 40 38 38 39 40 39
13 15 16 18 20 21 23 24 25 27 27 23 18 17 20 36 33 31 32 31 32 38 37 37 39 38 40 40 39 37 38 41 43
16 18 21 23 25 26 27 28 28 29 30 30 25 27 30 24 32 23 27 32 27 32 36 36 37 40 43 40 39 39 39 36 41
23 25 27 28 28 28 28 28 28 27 28 26 26 27 26 23 26 38 30 36 30 30 33 35 32 32 33 40 38 36 36 37 38

GFSFLT1_850_spd_027.txt.gz
Wind_Speed
6 7 8 7 7 6 5 4 6 6 5 11 10 11 10 14 8 9 10 13 10 16 14 12 14 16 15 15 14 13 12 12 11
8 7 5 8 7 6 4 5 5 7 8 9 11 10 13 14 11 10 13 13 12 15 16 15 13 15 15 14 14 13 12 12 12
8 6 9 8 9 8 6 7 9 10 9 10 11 13 14 14 14 11 15 17 20 17 17 16 14 18 17 17 16 15 14 14 14
8 8 10 11 10 9 8 7 7 10 12 14 12 12 14 16 15 14 14 18 21 19 19 20 18 17 20 20 19 18 18 17 17
7 7 7 8 8 8 7 7 8 9 11 12 11 13 14 16 14 14 15 19 21 19 21 22 22 21 21 22 24 23 22 21 21
9 10 8 8 7 7 8 8 9 10 11 11 13 16 16 11 13 16 18 22 21 20 22 24 26 26 25 25 25 27 26 25 25
8 9 6 7 7 7 8 9 10 12 11 10 17 16 14 13 16 18 20 20 20 21 22 24 27 28 29 29 29 29 29 29 28
6 6 7 8 8 9 10 12 13 12 12 13 13 15 17 17 18 21 24 25 23 24 25 25 27 29 31 32 33 33 33 33 34
5 6 8 9 8 9 11 11 11 14 15 16 17 18 20 22 23 24 26 31 31 28 29 30 30 31 31 33 35 36 37 37 37
6 7 7 8 9 10 12 13 14 14 16 17 19 21 22 24 26 28 28 30 34 34 33 32 34 35 35 36 36 36 38 39 40
7 8 8 9 10 11 12 14 16 17 17 19 20 22 23 25 26 29 31 31 33 35 36 33 32 34 36 38 39 40 40 40 41
9 9 10 9 10 13 14 14 16 18 19 20 21 22 22 24 25 27 29 31 32 32 34 36 35 33 34 35 37 39 41 42 44
8 8 8 9 11 11 12 14 16 16 17 19 20 21 22 23 25 26 27 28 28 29 31 32 34 36 35 36 37 39 42 44 46
5 4 5 7 7 7 9 12 13 16 18 19 21 23 24 26 26 26 26 26 26 27 29 29 31 32 33 33 34 36 37 39 44
3 5 7 9 9 10 14 16 19 20 18 20 24 23 26 28 23 20 22 23 21 25 30 32 34 35 31 34 35 36 36 37 39
8 9 11 13 13 15 17 18 21 22 19 24 25 26 12 17 20 21 21 25 29 29 28 31 30 33 34 39 37 35 36 36 38
11 12 14 16 17 18 20 20 21 19 19 20 26 15 24 13 21 30 27 27 26 22 24 27 33 36 33 33 35 36 39 43 40
13 16 17 18 18 19 20 20 19 19 21 16 14 15 13 34 25 26 19 22 29 29 26 29 35 33 32 35 35 34 33 35 36
17 19 20 20 20 19 19 17 18 16 18 21 17 19 23 28 29 18 31 23 25 35 32 33 36 33 32 35 37 38 35 39 37
21 22 21 21 20 20 20 20 19 19 21 22 22 22 23 26 30 36 28 32 29 32 32 29 32 35 36 36 38 37 42 42 34

GFSFLT1_850_spd_030.txt.gz
Wind_Speed
6 6 4 7 6 5 2 4 9 11 10 9 12 10 11 12 9 4 6 13 11 11 16 14 14 16 16 16 16 16 15 13 12
6 3 5 9 8 7 5 4 4 5 7 7 10 13 13 14 13 10 9 11 16 13 15 15 16 15 16 16 16 16 15 14 13
7 7 6 7 8 8 8 7 7 8 8 9 10 11 12 11 12 12 12 12 18 20 18 17 17 17 16 18 18 18 17 16 15
5 6 6 6 7 6 6 6 6 7 8 9 10 10 12 13 13 13 12 13 14 19 18 20 20 20 20 19 21 20 20 19 19
4 5 4 6 6 6 6 6 7 7 8 9 10 11 15 15 14 10 10 10 12 18 19 20 21 22 23 23 22 24 24 23 22
9 8 8 7 6 6 6 7 8 9 11 11 9 15 17 15 15 16 16 17 18 20 20 21 22 24 26 26 25 26 26 27 26
7 11 9 7 6 6 8 9 10 12 12 12 13 17 17 19 20 21 22 21 23 23 23 24 23 24 26 28 29 29 29 30 30
6 8 8 9 9 10 11 14 15 16 18 19 18 20 20 21 23 24 25 26 28 29 29 29 29 29 29 29 29 31 32 33 34
5 6 9 12 12 13 14 14 15 15 17 19 21 21 23 24 26 27 27 29 29 32 33 32 31 32 33 33 33 33 33 33 36
5 8 9 10 10 12 12 15 14 16 17 19 19 21 23 24 26 28 28 29 31 30 32 34 34 33 31 33 35 35 35 36 36
8 8 6 9 11 12 13 16 16 17 17 20 23 23 22 23 23 26 28 29 30 30 30 33 33 32 32 32 33 37 39 38 38
7 7 7 7 9 12 13 15 16 17 17 17 18 19 21 24 27 27 26 27 28 29 28 27 29 31 33 34 33 35 36 38 41
6 3 5 7 7 9 11 13 14 15 17 19 19 18 23 26 27 28 27 26 27 28 28 30 28 26 29 30 32 31 33 35 37
4 5 5 3 5 8 10 13 16 20 21 22 23 25 27 28 26 23 23 22 23 21 19 20 23 28 32 35 34 32 31 33 35
3 1 3 6 8 12 15 17 19 21 22 25 26 28 26 13 17 20 19 22 27 28 31 31 34 29 27 26 28 29 30 33 38
6 7 9 11 12 15 17 20 22 22 22 26 30 29 17 20 20 16 26 30 32 31 27 26 26 31 31 34 37 36 34 36 33
9 12 14 15 15 17 19 20 22 21 20 21 24 15 27 6 29 26 32 18 19 27 31 33 33 35 39 40 41 38 35 33 31
14 16 17 17 18 19 19 19 19 21 21 19 15 13 9 40 16 32 19 22 34 24 30 34 39 38 34 33 32 32 35 37 34
18 20 20 21 20 19 19 19 19 19 22 23 22 20 23 24 25 18 39 26 34 39 33 36 27 28 34 41 41 39 35 37 37
19 22 22 22 21 20 19 20 20 22 23 24 26 28 27 28 34 38 30 38 32 33 35 28 37 36 33 34 34 37 35 39 37

GFSFLT1_850_spd_033.txt.gz
Wind_Speed
3 3 5 7 7 6 3 1 4 8 8 8 7 9 11 12 11 7 9 9 8 14 14 14 14 16 18 18 18 18 17 16 13
5 7 6 7 7 7 5 3 2 3 4 5 6 7 9 10 11 10 11 11 10 12 13 14 14 15 17 17 17 17 17 17 15
6 5 6 7 6 6 5 5 5 5 6 6 8 8 9 10 11 12 11 12 14 12 15 17 16 16 17 16 19 18 18 19 18
2 4 6 6 7 7 6 6 6 6 7 9 9 9 10 13 14 13 10 8 12 12 16 17 16 18 19 19 19 21 22 21 21
5 5 5 6 7 7 7 7 7 8 9 10 10 10 12 14 14 13 13 12 12 14 15 17 18 19 20 22 22 22 23 25 24
3 5 6 7 7 7 7 8 9 10 10 10 11 13 15 16 17 18 19 20 20 19 19 21 22 22 22 23 24 25 25 26 26
5 8 8 7 8 8 8 8 9 10 11 12 14 16 17 18 19 20 21 22 24 24 26 26 26 27 27 26 26 26 26 27 28
8 6 6 7 8 8 9 10 12 13 14 15 17 19 21 22 23 24 23 23 24 25 27 29 29 28 28 27 28 28 29 28 28
3 5 7 10 11 11 13 13 15 15 15 17 18 18 18 19 21 22 23 24 25 24 26 27 29 31 30 29 28 30 31 31 32
5 5 7 8 8 10 11 12 13 15 15 15 17 18 19 22 19 19 21 24 25 25 27 27 28 29 30 31 31 29 30 34 36
9 8 8 7 7 9 10 11 15 16 18 17 18 20 19 17 19 22 24 24 25 25 24 22 24 25 26 28 30 29 31 31 34
9 7 5 5 8 10 12 15 17 18 18 17 17 19 20 20 21 23 25 24 24 23 24 25 24 23 24 27 25 27 29 34 33
7 8 5 9 10 10 12 14 13 15 17 20 20 21 22 22 23 24 23 20 19 19 19 21 22 24 23 23 23 23 30 35 35
10 6 8 9 8 8 10 13 17 19 22 23 24 24 22 18 15 12 14 16 19 22 24 26 28 27 28 31 29 27 25 27 27
3 1 2 6 9 12 14 16 18 21 23 23 24 23 17 15 17 19 16 17 24 26 23 22 25 27 28 28 32 32 34 36 36
3 5 8 11 14 16 18 19 20 20 23 26 29 26 18 10 4 12 25 24 23 19 25 31 29 29 30 33 35 38 41 40 38
7 10 13 15 16 17 18 19 20 20 21 23 24 16 23 6 37 16 31 26 20 30 30 30 35 32 34 34 32 30 33 35 32
10 13 15 16 18 18 18 17 19 20 20 20 14 10 9 39 16 34 23 21 32 31 35 34 35 29 28 29 33 38 40 30 29
12 15 17 18 18 17 17 16 17 19 21 23 21 17 20 16 20 19 42 31 40 39 39 36 37 28 32 36 32 35 28 33 36
14 17 18 18 18 16 16 17 18 20 21 22 25 28 30 28 26 31 27 40 40 42 38 44 33 39 28 36 28 38 41 34 34

GFSFLT1_850_spd_036.txt.gz
Wind_Speed
4 5 5 5 4 2 1 2 5 7 8 8 7 7 9 10 9 8 8 11 10 9 11 16 14 13 15 17 19 19 19 18 17
4 5 5 5 5 4 3 1 1 2 3 4 6 7 7 9 9 9 9 11 12 12 10 13 15 15 13 15 16 18 18 18 18
2 4 5 5 5 5 5 5 5 6 5 6 8 7 8 9 11 12 12 10 11 13 11 13 16 15 15 16 17 18 21 20 19
2 3 4 5 6 6 6 6 7 7 8 9 9 9 10 11 11 11 11 10 11 10 13 12 16 16 16 17 18 20 19 21 22
4 4 4 5 6 6 6 6 7 7 8 8 8 10 12 12 13 13 13 13 13 14 15 13 15 18 19 19 19 19 21 21 22
4 3 4 4 6 5 5 5 6 6 6 7 8 10 11 13 15 16 16 16 17 18 18 18 19 20 21 22 23 23 22 22 24
1 2 3 3 4 5 5 5 6 6 7 8 9 11 14 16 16 17 18 19 20 20 20 21 23 23 22 22 22 24 24 25 25
2 2 2 3 5 5 6 7 8 9 10 12 13 13 14 15 16 17 19 19 18 20 21 21 24 25 26 26 26 24 25 25 26
1 2 4 5 7 7 9 10 10 11 14 14 14 15 16 17 18 18 16 17 18 19 20 20 23 24 25 26 28 28 29 29 28
5 6 6 7 7 7 9 10 11 12 15 18 19 19 19 20 20 18 19 21 23 24 24 24 25 21 20 22 24 26 27 26 27
9 9 10 10 8 9 11 13 15 18 18 20 20 20 19 20 22 23 23 24 25 24 23 23 23 22 24 22 23 25 24 23 24
13 14 12 9 9 12 13 15 16 19 20 18 19 20 21 21 23 24 25 25 23 21 20 19 17 18 17 20 22 22 22 22 25
9 10 9 10 12 14 14 15 15 18 19 21 21 21 20 20 20 18 15 12 13 15 17 19 20 21 21 22 23 24 27 28 31
11 11 10 11 9 10 13 16 18 21 21 22 22 20 19 15 11 12 12 16 18 20 20 21 20 21 23 26 27 27 28 30 32
6 4 4 7 10 13 15 17 18 20 22 22 22 20 14 11 19 12 10 18 22 24 21 20 23 27 28 28 30 30 30 32 33
2 2 6 10 13 16 17 18 18 18 21 24 24 20 10 8 4 13 15 20 21 17 22 28 25 29 30 29 28 30 31 30 30
0 5 8 12 15 17 17 18 17 17 20 23 20 14 17 4 25 12 29 20 28 28 27 31 30 31 30 28 26 29 31 33 28
4 8 12 15 17 17 16 16 17 19 18 19 12 9 8 36 15 35 25 35 30 35 34 33 33 31 34 29 33 32 31 30 29
7 12 15 17 17 16 15 14 16 17 20 20 17 15 18 14 19 26 41 34 42 40 39 36 36 38 32 35 30 31 28 34 34
11 14 17 17 16 14 13 14 16 18 20 21 23 24 25 22 19 31 33 44 42 42 37 39 40 35 36 33 36 33 33 31 29

GFSFLT1_850_spd_039.txt.gz
Wind_Speed
4 5 5 4 4 3 2 2 4 5 6 7 6 6 6 8 7 7 7 10 12 12 9 11 14 13 14 14 15 17 17 16 16
5 5 5 6 6 6 5 4 2 0 1 3 4 6 6 8 9 9 9 9 10 11 12 9 12 14 14 13 14 16 16 17 17
3 4 5 6 6 6 6 6 6 6 6 6 5 5 6 8 9 10 10 9 9 8 10 11 11 14 14 15 16 16 17 18 20
3 4 4 5 5 5 5 5 5 5 5 5 5 6 7 8 8 9 9 10 11 11 11 12 10 13 15 15 15 15 17 20 18
4 4 4 4 4 4 4 4 4 4 4 5 5 6 7 8 9 9 9 11 11 12 13 13 12 13 15 17 18 19 18 17 20
5 3 2 3 4 3 4 3 4 4 5 5 6 8 9 11 11 12 12 13 14 15 15 15 16 15 16 18 19 21 21 21 21
3 1 2 2 2 3 4 5 5 6 6 7 9 10 10 11 11 12 13 14 14 16 17 18 19 20 22 22 22 22 24 23 23
2 2 1 1 3 4 5 6 7 8 10 11 13 14 14 14 16 17 19 17 18 17 19 18 19 20 21 22 23 25 26 26 26
2 1 2 3 5 5 7 9 10 12 13 16 16 19 19 20 20 21 22 20 19 20 20 23 25 25 25 24 20 22 22 23 25
4 5 5 6 8 8 9 10 11 14 16 18 20 21 20 21 21 21 21 23 23 23 24 24 25 25 24 23 22 22 23 24 23
7 7 7 9 10 8 11 14 17 19 18 20 21 20 20 22 23 24 24 24 24 24 24 24 22 23 23 20 21 22 22 22 21
8 11 11 12 10 12 15 18 19 19 20 20 21 21 22 23 22 22 22 22 20 19 19 18 18 18 18 18 20 22 24 26 24
11 9 9 10 12 14 15 15 17 19 22 23 22 21 21 21 20 17 15 15 15 16 19 20 20 20 21 23 25 25 27 29 31
10 11 10 10 10 11 14 17 20 22 22 23 22 20 20 19 15 13 16 17 17 19 22 22 22 23 25 27 28 29 31 33 34
10 7 5 6 9 13 15 17 19 20 23 22 22 18 16 11 14 16 11 15 21 23 22 22 24 27 29 29 30 31 32 33 33
6 5 5 7 11 15 18 18 18 18 21 23 22 15 6 19 10 10 18 22 28 19 27 24 27 29 29 29 29 31 31 30 27
6 4 6 10 14 17 18 18 17 16 20 22 19 13 16 5 9 26 16 28 23 29 28 31 31 31 30 31 33 31 30 30 25
4 6 9 13 16 16 16 16 16 17 17 18 12 9 7 35 13 30 24 28 33 36 35 35 34 33 35 35 33 33 32 27 27
5 8 12 15 15 14 14 14 16 17 19 18 15 14 17 14 19 24 43 37 44 44 41 38 37 38 36 34 34 34 33 32 31
7 10 14 15 14 13 13 14 16 18 19 20 22 22 22 19 16 34 41 49 48 46 41 42 39 37 37 35 35 33 32 30 29

GFSFLT1_850_spd_042.txt.gz
Wind_Speed
4 4 5 5 5 5 3 3 3 4 4 4 3 4 5 6 6 6 6 7 7 9 9 10 9 10 11 11 14 16 17 17 16
5 4 6 7 8 8 7 7 5 3 3 2 3 4 5 6 6 7 7 7 6 7 7 7 7 11 11 12 13 13 14 15 16
3 3 6 7 7 7 7 7 6 5 5 4 3 4 4 6 6 7 6 7 7 7 6 6 7 8 13 12 12 16 16 16 18
2 3 5 5 5 6 6 5 4 4 3 4 4 4 5 6 6 6 7 7 8 9 9 9 10 7 11 13 13 12 12 14 17
3 3 3 4 4 5 4 4 4 4 4 4 5 6 6 7 7 8 8 9 9 10 12 12 11 11 11 11 13 15 17 16 16
4 3 2 3 3 4 4 3 3 3 4 4 6 8 9 10 11 11 11 11 12 13 14 17 17 17 17 16 18 19 19 19 20
5 2 2 2 2 2 2 3 4 5 6 7 10 12 12 13 13 14 15 15 15 15 17 18 20 18 17 18 19 20 21 23 22
4 3 3 2 1 2 3 4 7 8 9 10 12 13 15 17 17 18 18 18 18 18 18 19 21 21 20 21 19 19 20 21 24
4 3 3 3 4 5 6 7 9 9 11 13 15 17 19 20 20 20 21 20 19 19 20 21 22 22 22 21 22 25 24 20 20
5 5 5 5 7 7 7 8 11 13 15 17 17 19 21 20 20 21 22 22 21 20 21 21 22 23 23 22 22 23 22 23 24
5 6 7 8 9 8 9 12 15 16 16 17 19 19 20 22 23 22 22 21 20 19 19 20 21 22 21 21 22 24 25 26 26
5 5 10 10 8 10 12 15 16 16 17 18 19 20 21 22 22 21 19 18 16 16 16 16 17 19 19 21 23 24 25 27 28
6 7 7 10 12 13 12 14 17 19 21 21 20 21 21 21 20 18 16 14 15 15 17 19 21 22 23 25 26 27 29 31 32
8 8 11 10 10 10 13 17 20 22 22 22 19 19 18 17 16 14 13 15 15 15 22 23 23 25 26 28 29 30 31 33 34
8 10 8 7 8 11 14 17 20 21 22 20 17 16 12 11 9 14 16 12 17 24 24 24 27 28 29 30 32 31 33 34 35
8 7 6 6 9 13 17 18 18 18 19 20 19 11 3 15 14 10 16 21 25 25 22 27 30 30 30 31 32 33 34 35 34
8 7 6 8 12 16 18 17 16 17 20 21 19 12 12 3 7 24 21 23 21 30 28 31 31 30 31 33 34 35 35 33 30
9 7 7 10 14 16 17 16 15 15 17 19 14 8 6 31 11 30 17 28 31 36 37 36 33 34 33 33 34 35 35 33 28
8 6 8 12 14 15 14 15 16 17 18 17 16 14 15 12 19 21 39 34 43 44 41 39 37 33 34 34 34 34 34 30 31
6 6 10 13 13 14 13 14 16 18 19 20 20 20 19 17 16 34 41 48 46 44 43 40 36 35 36 36 35 33 29 31 32

GFSFLT1_850_spd_045.txt.gz
Wind_Speed
7 6 6 6 6 6 4 4 6 5 5 3 0 3 4 5 4 4 4 4 4 5 7 9 11 10 9 9 9 16 18 18 17
7 7 7 8 9 9 7 6 4 3 3 2 2 2 3 4 4 4 5 5 5 5 4 6 6 7 10 12 9 13 13 14 14
5 6 7 8 7 8 6 6 5 4 3 3 3 3 3 3 3 3 3 3 4 5 6 7 7 7 10 12 11 12 15 16 17
3 5 6 6 6 6 5 5 4 3 3 3 2 1 2 3 3 4 5 6 6 6 7 9 9 9 9 11 13 12 12 13 14
4 4 5 4 4 4 3 3 2 2 2 2 3 4 5 6 8 9 10 9 9 10 12 14 15 16 15 14 13 15 15 16 16
6 5 4 4 3 2 2 1 1 1 3 4 6 8 9 9 11 11 10 10 10 11 13 15 15 14 14 15 18 20 20 20 20
7 4 3 3 2 1 1 2 4 4 5 6 8 10 11 11 12 13 14 13 13 14 14 16 17 17 17 16 17 17 16 19 22
6 4 3 3 2 2 3 4 6 8 8 9 12 13 14 15 16 17 16 16 16 15 14 15 16 17 18 19 20 22 21 22 21
6 4 4 4 3 4 5 6 7 10 12 12 15 16 16 18 18 18 18 17 17 16 17 17 18 19 19 20 21 22 23 25 25
5 3 3 3 4 5 6 8 10 12 14 16 17 18 18 18 18 19 19 18 16 16 16 17 19 19 18 19 20 21 22 23 25
3 2 4 6 7 7 9 12 14 15 15 16 17 19 19 20 20 19 18 16 15 14 14 14 15 15 16 17 19 20 21 23 25
5 4 6 5 8 8 11 12 13 14 16 18 19 21 21 20 20 18 15 13 12 13 13 14 16 17 18 20 22 23 24 25 28
9 8 5 7 9 11 10 10 14 17 19 20 20 20 19 18 16 13 11 11 11 12 13 15 20 21 23 23 25 26 27 27 30
13 8 7 8 8 7 9 13 17 20 20 18 16 16 15 13 12 11 10 11 13 13 17 23 23 25 26 27 28 29 29 29 32
13 9 8 6 5 8 11 15 18 20 19 16 15 12 9 9 8 8 13 14 15 18 22 25 27 29 29 29 29 30 31 32 34
13 9 7 6 7 9 13 15 16 16 17 16 14 9 3 13 11 7 15 21 20 23 22 29 29 29 28 28 30 31 32 32 33
12 9 8 7 8 11 13 14 14 16 17 18 15 7 7 4 7 23 13 21 14 24 25 28 27 29 29 29 31 32 33 34 34
12 11 8 7 9 11 13 14 13 14 16 16 12 7 4 23 7 20 15 21 25 32 31 28 31 28 30 32 33 33 35 34 31
13 9 6 7 9 12 13 13 14 14 14 15 15 12 13 9 13 17 30 28 37 35 32 36 28 32 33 33 33 33 34 33 30
11 7 5 7 10 11 12 13 14 15 16 16 16 16 16 15 15 23 31 38 36 35 41 30 36 37 34 34 37 38 33 30 31

GFSFLT1_850_spd_048.txt.gz
Wind_Speed
7 6 6 5 6 7 7 7 8 7 6 4 2 2 3 4 5 5 5 5 5 5 6 8 9 10 11 10 9 11 17 18 17
7 7 8 8 8 7 6 5 4 3 3 2 1 1 2 3 4 4 5 6 6 6 6 5 6 8 9 10 11 11 13 14 14
7 7 7 8 8 8 7 6 5 4 2 2 2 1 2 4 5 5 6 7 8 8 7 7 7 8 9 11 12 12 12 14 14
6 6 6 6 6 6 5 5 4 3 2 1 1 3 4 4 5 7 8 10 10 10 11 12 13 14 13 12 14 14 14 14 13
6 5 5 5 4 4 3 3 2 1 1 2 3 5 6 5 8 8 9 9 9 9 11 12 13 12 12 14 18 18 17 18 18
6 6 5 4 3 2 2 1 1 2 3 5 6 7 7 7 7 7 10 10 11 12 14 16 16 16 16 16 16 14 15 19 22
9 6 4 4 3 2 1 2 2 3 4 6 8 8 10 10 11 13 12 12 13 14 13 15 16 16 16 17 17 18 19 19 19
8 6 5 4 3 2 3 4 4 5 5 8 11 12 13 13 14 17 15 13 13 14 14 15 16 17 18 17 18 18 19 20 21
7 5 5 5 4 4 4 5 7 7 10 11 13 15 15 16 16 18 16 15 14 14 15 17 18 18 18 19 20 21 21 21 21
7 6 5 5 5 5 6 7 9 11 13 14 15 16 17 18 18 19 18 16 15 16 17 17 18 17 17 18 19 19 20 20 21
6 6 3 5 7 8 10 10 12 13 13 14 17 19 20 20 19 17 18 15 15 15 15 15 15 14 15 17 19 21 22 23 24
9 7 7 6 5 7 10 11 11 11 13 16 19 20 19 19 17 15 14 14 13 14 14 14 15 16 18 20 21 22 24 24 25
12 12 12 7 8 8 9 9 10 13 16 17 18 18 17 15 13 12 12 11 12 14 14 15 17 21 22 23 24 25 27 27 27
17 13 12 9 9 8 7 8 12 16 17 16 15 16 14 12 10 9 10 10 13 15 16 18 23 23 25 26 26 26 27 28 28
19 16 14 10 8 6 7 10 14 16 16 14 13 13 11 10 8 9 11 12 16 19 20 23 26 29 28 27 27 27 28 29 29
20 16 13 10 7 6 8 11 13 15 15 12 12 9 7 13 10 11 12 20 17 20 18 27 28 28 27 27 26 27 28 30 30
20 17 14 10 7 6 8 10 13 13 13 12 9 4 5 4 6 18 18 14 16 22 22 26 24 27 26 28 29 29 30 31 32
20 16 12 10 6 7 8 10 11 11 12 11 6 4 3 13 8 14 14 13 22 24 25 24 28 24 29 29 30 32 33 34 35
18 14 11 8 6 6 9 10 10 9 10 11 10 7 9 5 10 8 13 18 20 22 24 24 27 27 26 29 30 32 34 35 33
16 14 12 7 5 7 8 10 9 10 10 10 11 11 10 9 8 19 15 22 22 22 19 27 23 22 24 25 26 28 32 31 30

GFSFLT1_850_spd_051.txt.gz
Wind_Speed
6 5 5 5 6 8 11 7 6 7 5 4 1 3 5 10 6 6 8 8 8 8 8 6 6 7 9 9 8 9 11 14 17
7 7 7 7 7 7 6 4 4 3 2 1 1 3 5 9 4 5 5 7 9 10 8 8 7 7 8 8 9 9 10 11 14
7 7 8 8 8 8 7 6 5 4 2 2 2 4 4 6 5 6 7 9 9 10 10 10 11 12 11 11 10 9 12 13 12
6 6 6 7 6 6 6 5 4 3 3 3 3 5 6 7 5 6 6 11 10 10 9 10 10 10 11 12 14 14 13 14 15
6 5 5 5 5 4 4 3 3 2 3 3 4 6 8 8 6 6 9 9 9 10 12 12 12 13 13 13 13 12 12 16 18
3 6 4 3 3 2 2 2 2 3 5 6 6 7 3 4 5 8 10 11 11 12 13 15 15 15 15 14 14 15 15 14 14
10 5 4 3 1 1 1 2 2 6 4 9 8 5 6 5 6 12 12 12 12 13 14 14 15 15 15 15 15 16 16 17 17
8 3 2 1 1 3 4 5 2 2 1 5 5 7 7 7 7 16 14 13 13 13 14 16 17 16 16 17 18 17 18 18 19
7 5 6 5 1 4 1 3 3 5 8 9 8 10 12 12 12 18 16 15 14 15 17 17 18 17 18 19 19 19 19 19 20
9 8 6 5 5 5 4 4 7 8 9 11 12 13 14 15 14 17 18 16 15 17 17 17 17 16 16 16 17 17 19 19 20
10 8 7 5 5 7 8 10 11 11 10 11 14 16 16 17 16 11 19 16 14 16 16 16 15 14 15 17 18 19 22 23 23
11 12 9 8 7 7 8 9 10 9 10 13 16 16 15 15 14 11 9 15 12 13 14 14 16 15 16 19 21 21 23 24 23
16 13 14 10 10 9 8 7 7 9 12 14 14 14 14 11 10 9 9 10 11 14 13 15 17 17 20 23 23 24 24 25 25
18 18 13 13 11 9 7 6 8 11 13 14 13 14 13 11 9 8 10 10 12 13 18 20 20 21 23 24 24 23 24 25 25
24 19 15 14 11 9 7 7 9 12 13 12 10 13 10 10 8 9 9 13 12 19 17 19 20 24 26 25 25 23 24 26 27
24 20 17 13 12 10 7 7 10 12 12 9 8 10 9 10 11 9 8 14 18 15 15 21 22 23 24 26 26 26 27 27 29
22 21 17 14 12 11 6 7 9 11 11 9 8 2 7 7 7 10 16 13 16 15 19 24 23 22 26 24 27 28 30 30 31
25 24 19 13 11 9 6 7 7 10 11 9 4 2 3 13 9 13 12 14 16 20 25 25 23 25 26 26 26 30 32 30 32
26 22 15 14 11 8 7 7 8 8 9 11 8 6 9 4 9 7 9 16 19 22 26 26 26 26 24 25 28 30 28 34 33
24 20 17 15 11 9 7 7 8 8 9 9 10 10 9 9 9 17 12 21 20 24 21 21 27 26 26 27 28 21 27 28 30

GFSFLT1_850_spd_054.txt.gz
Wind_Speed
7 7 7 7 7 7 8 5 5 6 4 3 2 6 8 11 9 5 8 8 9 9 9 8 7 5 4 6 5 7 9 9 9
8 8 8 8 8 8 7 5 5 4 2 2 4 6 10 11 7 1 4 6 9 9 8 9 8 8 8 8 6 7 7 8 8
8 9 10 10 10 9 8 7 6 5 4 5 5 6 7 7 5 6 6 7 10 8 7 7 8 7 8 9 10 9 9 10 11
8 8 8 9 9 8 8 7 6 5 5 5 5 6 7 8 5 4 5 9 8 7 7 7 8 10 10 9 8 8 10 11 11
8 7 7 7 7 6 6 5 5 4 5 5 5 6 7 6 4 5 7 10 9 10 10 10 11 11 11 11 11 11 11 11 10
6 7 6 5 5 5 5 4 5 5 6 7 6 5 5 2 8 9 8 9 10 10 11 11 11 12 12 12 12 12 12 12 12
5 4 5 4 4 4 3 4 5 7 3 4 5 2 2 5 10 10 10 11 10 11 13 13 13 13 13 15 15 15 15 15 16
9 6 5 5 3 3 3 4 2 3 5 6 4 5 6 7 12 14 13 12 11 13 15 15 14 15 16 17 18 17 18 19 18
14 6 6 5 5 2 2 4 6 3 4 7 7 8 9 10 13 16 15 14 13 16 16 15 15 16 17 16 17 16 16 17 17
10 10 8 9 8 8 6 8 7 7 6 9 9 10 12 12 15 17 17 15 14 15 15 15 15 14 14 14 15 16 17 18 19
13 13 10 12 7 7 7 8 8 9 7 7 10 13 14 16 14 16 17 14 13 13 13 13 13 13 14 14 16 18 20 21 21
17 14 15 11 8 6 7 8 8 7 6 9 12 14 13 12 14 13 15 15 12 11 11 12 13 14 15 15 18 20 21 21 21
19 17 16 15 12 8 6 6 6 6 8 10 12 13 13 12 12 11 13 14 13 12 11 11 15 18 17 18 20 21 21 21 21
21 20 18 15 12 10 7 6 6 8 10 11 12 12 12 11 9 11 11 10 12 14 14 19 16 17 18 20 20 20 21 21 22
26 22 20 18 14 11 8 7 6 9 11 11 10 11 11 10 10 10 12 13 11 15 19 19 16 20 23 21 22 24 22 23 24
27 25 23 20 16 12 8 7 7 9 11 10 9 9 8 10 10 9 8 14 19 18 20 18 22 25 24 22 25 26 24 26 27
28 26 24 22 17 13 7 6 10 10 10 8 9 3 8 8 8 15 15 15 16 20 21 23 26 25 24 26 27 26 26 29 27
29 29 27 22 16 12 8 9 11 11 9 7 5 3 3 9 8 9 13 14 18 21 24 29 30 27 26 26 27 27 31 30 26
29 27 25 20 16 12 11 11 10 9 8 8 7 7 8 5 7 5 10 14 19 22 28 29 28 29 29 28 28 29 30 32 29
30 27 24 21 16 13 11 9 7 7 9 9 9 8 8 8 9 18 17 21 24 25 24 27 28 26 28 27 29 27 25 25 29

GFSFLT1_850_spd_057.txt.gz
Wind_Speed
8 9 9 10 10 11 10 10 10 7 3 3 7 9 10 11 7 5 5 7 8 8 6 6 7 5 4 4 4 4 6 5 6
9 10 10 10 9 9 8 6 5 4 5 7 9 11 11 9 5 2 5 6 7 7 5 5 5 5 5 5 5 4 4 5 6
11 12 12 12 11 10 8 8 8 7 8 8 9 9 9 9 3 3 3 5 8 4 4 3 4 4 5 4 5 5 6 6 7
12 12 12 12 11 11 10 10 9 8 8 7 7 8 9 4 1 1 3 7 9 7 5 5 5 5 6 6 6 6 6 4 6
11 11 10 10 10 10 9 9 8 8 7 7 6 7 5 2 1 3 7 9 9 8 7 6 7 7 8 8 8 8 9 9 8
10 10 10 9 8 8 8 8 7 7 6 7 6 4 2 3 6 9 9 8 9 9 9 8 8 8 9 9 9 10 10 10 10
9 9 8 8 8 8 7 8 7 5 4 3 2 2 4 7 8 8 8 9 9 11 10 10 9 10 12 12 12 13 13 13 14
10 8 7 8 8 8 7 7 5 2 1 2 5 5 7 8 10 11 11 10 9 14 14 11 11 12 13 14 13 13 13 13 13
9 8 9 9 9 8 7 6 3 4 6 6 7 8 9 10 12 13 12 11 12 14 13 12 11 12 12 12 12 11 11 13 13
14 14 11 10 10 8 7 7 6 6 7 7 7 8 10 11 12 13 12 11 11 11 11 11 10 10 10 11 12 13 13 14 16
17 15 11 13 11 11 12 10 8 7 6 7 8 11 12 14 13 13 13 11 9 9 9 9 9 10 11 12 14 15 17 17 18
18 16 17 15 14 15 13 10 9 7 6 5 9 11 11 12 13 13 12 10 10 9 8 8 10 10 14 14 15 17 19 19 19
20 22 19 18 17 16 13 9 9 7 6 5 9 10 11 12 13 12 11 10 9 9 9 10 12 16 13 14 16 18 18 19 19
25 23 21 19 18 16 13 10 10 9 6 6 9 10 10 10 11 11 10 10 10 9 12 15 16 16 14 18 19 19 20 21 20
28 25 23 22 20 17 13 11 10 8 6 7 9 9 10 7 8 10 10 8 9 13 16 15 14 16 20 21 19 19 23 23 21
29 28 26 26 22 19 15 12 11 8 7 6 9 9 8 8 7 6 9 13 13 15 14 17 18 21 21 22 20 24 23 23 22
30 31 31 28 25 21 16 13 11 9 7 7 9 5 8 7 7 10 10 10 14 15 17 19 22 24 23 23 24 23 24 24 23
33 32 31 28 24 20 17 15 14 11 9 8 6 4 3 9 8 8 9 12 14 16 18 21 26 25 25 25 24 25 25 25 22
33 31 30 27 24 23 18 17 13 10 8 9 9 7 9 5 5 8 11 14 17 19 21 25 22 23 22 23 26 25 27 25 23
35 31 29 28 25 22 18 14 12 11 11 9 9 10 10 11 10 15 12 16 21 22 21 23 21 21 20 23 24 23 22 23 25

GFSFLT1_850_spd_060.txt.gz
Wind_Speed
8 9 12 15 14 13 13 11 9 6 1 7 10 10 9 8 8 7 8 8 9 7 6 6 5 4 3 3 3 2 3 2 3
9 10 11 12 12 12 9 8 7 5 7 9 10 11 8 7 6 5 6 6 6 4 3 4 4 4 5 3 4 4 3 3 5
10 10 11 11 11 11 8 8 8 9 10 10 10 9 7 7 4 3 3 3 6 4 4 4 4 4 4 2 2 4 2 4 6
12 12 12 11 11 11 11 10 10 10 10 9 9 9 6 4 3 1 2 5 9 7 5 4 3 4 4 5 6 6 6 5 5
13 12 12 12 12 11 11 10 10 9 9 8 9 7 4 2 2 3 5 9 9 7 3 4 6 4 6 7 7 6 7 6 6
13 12 12 12 11 10 10 10 10 9 8 8 7 4 3 3 4 5 7 8 9 8 7 6 6 7 7 7 8 9 9 9 9
13 13 12 12 11 11 10 9 9 8 7 6 4 2 4 4 6 7 8 9 9 6 7 7 8 8 9 9 10 11 11 11 11
15 14 13 12 12 11 11 10 8 7 6 5 4 4 6 7 9 9 9 9 9 10 10 8 8 8 10 10 9 9 9 10 9
16 13 12 12 12 11 10 9 8 6 6 6 6 6 7 9 10 10 9 10 11 13 10 8 8 9 9 9 9 8 9 10 10
15 13 12 12 13 12 10 10 8 7 8 9 9 7 8 9 11 10 9 9 10 10 9 8 8 8 8 10 10 10 11 12 14
15 14 14 14 14 13 10 9 9 10 11 10 9 8 9 10 10 10 9 8 7 8 8 7 7 7 9 11 13 14 14 15 15
15 17 18 15 15 14 12 11 12 12 12 10 9 10 10 11 10 10 8 7 7 7 7 7 8 8 13 10 12 15 16 16 16
17 21 20 17 17 15 15 15 14 12 11 9 9 10 9 11 10 8 8 7 6 7 8 9 11 13 11 11 13 16 17 17 17
22 24 21 19 19 18 18 15 13 11 10 9 9 10 9 9 8 7 7 7 7 6 9 11 12 12 12 15 17 16 17 19 20
26 25 24 22 22 22 20 16 13 12 11 10 10 9 9 8 8 7 8 7 8 9 12 11 12 13 16 17 18 18 18 21 21
29 28 28 26 24 22 20 17 14 14 13 10 9 9 8 7 6 7 7 9 10 11 12 14 15 17 20 20 19 20 20 20 20
28 31 31 29 27 25 22 19 17 15 14 10 9 6 7 7 8 10 11 11 12 12 14 17 19 22 24 22 23 22 21 22 20
29 28 31 31 30 26 23 21 18 17 15 11 8 5 5 6 10 10 13 13 13 14 17 19 22 26 24 25 24 24 25 23 19
32 31 33 34 31 28 25 22 20 17 15 12 12 10 10 6 5 8 11 14 15 16 18 24 23 24 22 23 23 26 24 23 20
37 34 37 36 28 27 26 22 21 17 16 13 12 11 11 10 10 11 11 14 17 21 21 21 22 22 21 25 25 25 24 25 24

GFSFLT1_850_spd_063.txt.gz
Wind_Speed
7 10 13 13 15 15 13 10 8 3 2 7 8 7 7 7 8 9 10 11 11 9 9 8 5 4 4 3 4 3 2 3 3
7 9 13 13 12 12 10 9 7 4 7 9 7 7 6 7 6 8 9 9 8 6 4 4 4 3 9 4 3 5 3 3 6
8 9 11 11 11 11 8 8 8 8 9 9 8 6 5 5 4 4 5 5 5 4 4 4 2 3 4 3 2 2 3 3 5
10 10 11 11 11 10 9 10 11 11 11 9 7 6 3 2 2 2 2 4 7 6 4 1 3 5 5 5 6 6 4 4 5
12 12 12 12 11 11 11 11 11 10 10 9 7 6 3 1 0 1 4 7 7 5 3 5 5 5 5 6 6 7 7 7 7
13 13 12 12 12 11 10 10 10 9 8 7 5 3 2 2 2 4 6 7 7 7 7 6 6 8 7 7 8 9 10 10 10
13 13 13 12 11 11 11 10 10 8 7 6 4 2 3 3 4 5 6 7 6 9 7 6 8 9 8 9 10 10 10 10 10
16 15 15 14 13 12 11 11 10 8 7 5 4 4 5 5 6 7 8 8 10 13 9 8 7 9 9 9 8 9 9 9 9
18 16 15 14 13 13 11 11 9 7 7 6 6 6 7 8 8 9 9 10 11 13 10 7 7 8 9 9 8 9 10 10 10
18 16 15 14 14 13 12 11 9 8 7 7 8 8 8 9 9 9 9 9 10 9 9 7 7 7 8 10 10 10 12 12 13
18 17 15 16 15 15 13 11 10 9 8 9 9 9 9 10 10 9 8 7 7 7 7 7 6 6 8 11 13 13 12 14 14
20 18 16 15 16 16 14 13 12 10 11 11 10 9 10 10 10 9 7 6 6 6 6 7 7 7 11 10 11 14 16 17 16
21 19 19 18 18 17 16 14 12 11 12 12 10 10 10 10 9 7 6 6 6 6 6 7 10 11 10 10 12 14 17 18 18
22 21 19 21 19 19 18 16 14 13 13 12 11 10 10 10 9 6 6 6 6 6 8 10 11 10 11 12 14 17 17 18 19
24 22 21 23 22 21 20 17 17 16 14 14 13 11 10 10 8 7 7 7 7 9 11 12 12 13 13 15 17 19 19 20 19
25 25 23 26 26 22 21 21 20 18 17 15 13 12 11 11 11 10 9 10 9 12 13 13 14 16 18 20 21 21 22 20 19
26 28 28 29 28 27 26 24 23 21 18 15 13 9 11 13 13 13 11 11 14 14 15 15 18 20 22 23 22 24 23 22 20
28 26 29 31 31 31 30 28 26 23 19 17 13 7 8 7 12 14 13 16 16 15 16 18 20 25 25 25 23 23 23 24 20
32 29 30 31 33 34 34 30 27 24 22 18 20 19 14 9 6 11 13 16 16 16 17 21 25 24 24 24 23 23 25 24 23
36 33 32 34 35 37 34 31 28 26 22 21 20 17 15 15 14 11 12 14 15 16 20 24 24 22 23 22 26 24 25 30 30

GFSFLT1_850_spd_066.txt.gz
Wind_Speed
9 13 15 13 13 15 14 10 7 3 2 7 7 7 8 8 8 9 11 12 11 7 9 10 9 10 2 5 5 3 3 3 5
6 9 15 15 13 11 10 8 6 2 5 7 6 7 7 7 7 8 10 10 6 4 3 4 4 4 11 13 12 6 2 1 2
7 8 12 12 12 11 9 7 5 6 7 7 6 5 6 5 6 6 6 6 5 5 5 3 1 3 3 3 4 2 1 3 2
7 8 10 10 10 9 8 8 8 8 8 7 5 4 3 3 3 3 3 4 6 5 2 2 4 5 6 3 5 5 4 5 6
8 10 11 10 11 10 10 11 10 9 7 5 4 3 1 1 1 2 4 6 4 4 5 5 7 7 6 6 7 8 9 8 8
10 11 12 12 12 12 12 11 11 9 7 6 5 3 1 1 2 4 5 6 6 7 7 7 8 8 7 7 9 10 10 10 10
12 12 12 13 13 13 12 12 11 9 7 5 4 2 1 2 3 5 5 4 7 9 7 6 7 7 7 8 8 9 9 9 8
15 14 14 13 14 13 13 12 9 7 6 5 3 3 3 4 5 6 6 5 9 11 8 6 6 7 7 7 7 7 8 8 8
16 15 14 13 12 12 11 11 10 8 8 5 4 5 5 5 5 7 7 8 11 10 8 5 5 7 7 7 8 8 8 9 9
17 16 15 14 13 12 11 11 10 8 7 6 6 7 7 6 7 8 8 8 9 8 7 6 6 6 7 8 9 11 11 10 10
18 17 17 16 14 14 12 11 10 9 7 7 8 8 8 8 8 8 8 8 8 7 6 4 4 6 6 10 13 11 11 12 12
20 19 18 16 16 16 15 14 12 11 9 8 9 9 9 9 9 8 8 8 7 7 6 6 5 5 9 11 11 13 15 15 16
22 21 19 17 18 17 17 15 14 13 11 10 11 11 10 10 9 8 7 6 6 7 7 6 7 8 8 8 10 13 16 18 18
25 23 21 21 20 19 19 18 16 15 13 13 12 12 12 11 10 9 8 8 8 8 8 8 9 9 9 10 12 15 17 18 19
27 25 24 23 24 23 22 20 18 17 16 15 14 14 13 12 11 10 10 10 10 10 11 11 12 11 13 13 15 18 18 18 19
26 27 26 26 26 24 23 23 22 21 19 17 16 16 15 15 14 14 13 13 13 13 14 13 13 15 16 17 19 20 19 20 19
27 28 29 29 26 27 28 26 24 24 22 20 17 13 16 18 19 16 16 16 17 16 14 15 18 18 19 22 22 21 22 21 21
30 30 29 30 29 29 29 29 27 27 25 22 18 7 10 11 15 17 17 18 19 17 17 19 21 21 23 24 23 23 23 23 23
32 32 32 31 30 30 31 32 32 28 26 25 25 23 20 10 8 15 18 19 19 19 20 21 22 24 25 24 23 23 23 24 24
34 35 36 34 32 33 34 35 33 29 27 28 28 24 24 23 20 15 17 18 17 19 21 22 23 24 25 24 23 26 26 26 31

GFSFLT1_850_spd_069.txt.gz
Wind_Speed
10 13 9 10 15 17 13 10 5 3 6 9 10 10 10 10 10 12 12 11 9 9 11 11 8 10 7 9 2 4 4 3 6
14 14 13 14 16 15 13 8 5 3 8 9 9 10 9 9 9 9 10 10 5 4 2 3 2 7 9 7 12 7 5 4 3
9 13 16 12 13 12 10 8 5 6 8 8 8 7 7 8 8 7 7 4 4 3 2 2 2 0 4 7 4 3 5 5 3
8 12 15 13 12 11 9 8 8 8 8 7 6 6 5 5 4 4 4 4 3 2 0 2 4 5 5 4 4 4 4 5 6
8 10 14 13 13 11 11 10 9 9 8 7 5 4 3 2 2 1 3 2 1 3 4 5 6 5 5 5 6 7 7 7 7
10 11 11 13 13 12 12 11 10 8 7 6 5 3 1 0 0 2 2 2 4 4 5 6 6 6 5 6 7 8 7 7 7
11 12 13 13 14 14 13 11 9 8 6 6 5 3 2 1 2 3 3 6 8 6 6 7 6 5 5 5 6 6 6 6 6
14 14 15 15 14 13 13 11 9 8 6 5 4 2 2 3 3 4 3 7 10 9 8 7 6 5 5 5 5 5 5 6 6
16 15 15 15 14 13 12 11 10 8 6 5 4 4 4 5 4 5 7 9 10 9 8 6 6 5 5 5 5 6 6 7 7
17 17 16 15 15 14 13 12 11 9 8 6 6 6 6 6 6 6 7 9 10 10 7 5 4 5 5 6 7 9 8 7 8
18 18 17 17 16 15 14 13 12 10 9 7 7 7 7 7 7 7 8 8 8 8 6 4 4 5 6 9 12 10 9 10 10
19 19 19 18 17 17 17 15 14 12 11 9 9 8 8 8 8 8 8 8 8 8 7 6 5 5 7 9 10 11 13 14 15
22 21 21 19 19 19 18 17 16 14 13 11 10 10 10 10 10 9 10 9 9 10 9 8 7 8 8 8 9 12 14 16 17
24 23 22 22 21 21 20 20 18 15 15 14 12 11 12 12 12 12 11 11 11 11 10 10 10 9 9 10 11 14 16 18 17
25 25 25 26 26 24 24 22 20 18 18 17 14 14 14 14 14 14 14 14 13 13 13 12 11 11 11 11 13 16 18 18 18
25 26 27 29 30 28 25 25 24 22 21 19 18 17 16 17 17 17 17 17 16 16 15 14 14 14 13 14 17 19 19 18 18
25 27 29 32 31 30 30 29 27 26 25 23 19 13 17 21 21 21 20 19 19 18 18 18 17 16 16 18 20 22 20 20 20
30 29 30 32 33 33 31 31 30 29 28 27 20 10 12 12 17 21 22 22 21 20 20 20 19 18 19 21 23 23 22 22 21
34 32 31 32 33 34 34 32 32 32 33 29 29 28 23 11 10 19 22 23 23 22 22 22 21 20 22 24 24 24 23 23 25
36 35 34 35 34 34 34 35 36 36 37 33 32 31 30 26 29 24 23 24 23 23 23 22 21 22 24 25 23 23 24 25 25

GFSFLT1_850_spd_072.txt.gz
Wind_Speed
9 9 8 10 17 13 11 8 3 4 9 10 10 10 10 11 10 10 12 9 9 10 10 10 12 6 11 8 6 4 3 4 10
13 9 9 14 17 12 10 7 4 5 9 10 10 10 9 9 8 8 7 7 4 4 1 0 3 5 2 7 8 6 3 2 1
13 12 12 14 14 12 10 7 5 7 9 8 9 9 9 8 7 7 5 5 4 1 1 2 3 3 5 6 7 7 6 7 7
10 13 15 13 13 11 10 8 6 9 9 8 7 7 6 6 5 5 3 3 2 0 2 4 2 4 5 5 5 4 4 5 5
10 14 15 14 14 12 10 9 9 9 8 7 6 5 4 3 3 4 1 1 2 3 4 6 6 5 6 6 7 6 6 6 7
10 15 16 14 14 13 11 11 9 9 7 6 5 3 2 3 2 3 1 4 5 5 6 7 7 7 6 7 7 7 6 6 6
11 14 15 15 14 13 13 11 10 9 7 6 5 4 2 2 2 2 3 5 6 6 6 6 6 6 6 6 7 6 6 6 6
12 14 15 14 14 13 12 11 10 10 8 8 6 5 4 3 3 4 4 8 8 8 7 6 5 5 5 5 5 5 6 6 7
14 13 14 14 14 12 11 10 11 11 10 8 7 6 5 5 5 4 7 8 9 8 7 5 4 4 4 4 4 5 7 7 6
16 16 16 15 15 13 13 12 13 12 11 10 9 7 7 7 6 5 7 8 9 9 7 5 4 4 5 5 5 7 6 6 7
18 18 18 17 17 15 14 14 15 14 12 12 10 9 9 9 8 5 7 9 10 9 7 6 5 5 6 8 10 8 6 7 8
20 19 20 20 20 18 17 17 17 16 15 13 12 11 10 10 10 9 7 9 11 11 9 7 6 7 7 9 9 8 10 11 13
21 22 22 21 21 21 20 20 19 18 16 15 14 13 12 12 12 11 11 11 10 11 11 10 9 8 9 9 8 10 11 13 14
24 23 22 22 23 24 22 22 21 21 18 18 17 15 14 14 14 13 13 13 13 12 13 12 11 11 10 10 11 12 13 15 16
25 25 24 24 25 25 26 25 24 22 21 20 19 18 17 16 16 16 16 16 16 15 16 14 14 13 13 13 14 14 15 17 17
26 27 27 28 29 28 28 26 26 25 25 22 23 21 20 19 19 19 19 19 18 19 18 18 17 17 16 16 16 16 16 18 18
29 28 29 31 31 28 31 32 30 29 29 26 14 10 18 24 24 24 23 22 22 22 21 21 20 19 19 19 18 18 19 20 20
34 32 32 31 33 34 34 36 34 34 32 32 18 10 13 14 21 24 25 24 25 23 24 24 23 21 22 22 21 21 22 22 22
38 36 35 34 35 37 38 37 37 36 38 34 35 32 16 9 8 17 21 23 25 24 27 25 26 24 23 23 23 24 24 24 23
39 38 38 39 37 37 39 39 40 40 39 38 37 36 36 33 27 13 21 25 25 26 27 27 27 25 24 25 26 25 26 25 24

GFSFLT1_850_spd_075.txt.gz
Wind_Speed
5 7 7 12 12 11 7 4 5 7 9 10 12 12 15 15 11 11 9 9 11 11 12 13 10 8 12 8 6 6 6 7 12
9 8 7 14 12 9 6 2 3 7 8 9 10 11 16 12 6 7 5 7 6 5 4 3 4 3 4 5 4 2 3 4 6
10 8 9 14 13 10 8 4 3 7 8 8 10 10 15 8 6 7 3 6 3 3 3 3 2 2 3 5 6 8 8 7 6
10 11 11 10 10 9 8 6 5 7 7 7 8 8 12 7 6 6 3 3 0 3 4 5 3 4 5 5 5 5 5 6 6
11 12 12 12 11 9 8 6 7 7 7 6 6 6 9 4 5 2 4 1 3 4 5 5 6 6 6 7 6 6 6 6 6
10 13 13 13 12 10 8 8 7 7 7 6 5 5 4 3 3 4 2 2 4 6 7 6 6 6 6 6 6 5 6 5 5
9 13 14 14 13 11 10 8 8 7 4 6 5 5 3 3 3 7 4 4 4 6 6 6 6 5 5 5 5 5 5 5 6
13 13 14 14 12 12 11 11 10 7 7 6 3 4 5 3 3 8 5 5 6 6 6 5 5 5 4 4 4 5 6 6 6
11 10 13 12 13 11 11 9 8 9 9 7 7 6 5 4 4 10 7 5 7 7 6 4 4 4 4 4 4 6 6 5 6
12 13 13 13 13 12 11 11 11 10 9 9 8 8 6 6 5 9 8 7 7 8 7 6 4 3 3 3 4 4 4 5 6
15 14 15 14 14 13 13 13 13 12 11 10 10 10 10 8 7 9 9 9 9 9 8 7 5 5 5 6 6 5 4 5 6
16 16 17 16 15 14 14 14 13 13 12 12 12 11 10 10 10 10 11 10 10 10 9 7 6 6 7 9 9 8 8 8 9
19 18 17 16 16 16 17 16 16 15 16 15 15 14 14 11 11 12 13 13 12 9 11 8 8 8 9 9 10 9 10 10 12
19 19 18 18 19 19 19 18 18 18 18 17 17 16 16 15 14 15 15 15 14 13 12 11 11 10 10 10 11 11 12 12 14
21 20 20 20 21 22 22 21 21 19 19 16 17 18 19 18 18 18 18 17 16 16 18 14 15 14 13 13 13 13 14 14 14
23 24 23 24 26 26 22 22 23 23 19 17 19 19 21 22 21 20 21 20 20 18 20 18 18 16 16 16 16 16 16 16 16
27 28 26 26 27 26 25 25 26 26 26 25 16 9 18 25 26 24 23 22 22 21 21 20 20 19 18 20 17 19 18 18 18
32 31 31 30 28 31 31 32 30 31 30 31 19 9 12 14 18 26 27 23 24 23 23 23 22 22 21 22 21 21 19 20 20
37 35 35 34 32 34 35 35 35 35 35 32 35 27 16 11 9 17 23 25 24 27 25 25 24 24 23 25 24 23 22 22 23
34 35 37 38 37 37 37 36 38 39 36 39 36 38 37 30 22 13 18 22 25 26 26 24 25 24 23 25 26 24 24 25 25

GFSFLT1_850_spd_078.txt.gz
Wind_Speed
7 8 10 14 10 6 6 7 9 11 13 15 18 19 18 16 12 10 13 14 13 13 14 12 10 10 12 9 8 7 7 10 10
9 8 11 14 10 7 5 5 7 10 11 13 16 19 13 11 8 7 6 8 4 3 5 4 4 2 2 3 3 5 5 5 5
10 8 12 15 11 9 6 4 6 8 10 12 15 18 16 9 7 5 4 3 2 5 6 5 3 2 2 4 6 7 7 6 6
9 10 12 14 10 7 6 4 5 7 9 10 12 13 13 10 5 2 3 1 3 6 5 4 3 3 2 3 4 4 5 5 5
10 11 12 12 10 7 6 5 6 7 7 8 10 11 9 9 3 3 4 1 4 5 5 4 4 4 3 3 3 3 3 3 4
8 10 12 11 9 7 6 5 6 7 7 6 7 8 10 5 5 5 2 2 3 5 5 5 5 4 4 3 3 3 4 4 4
11 11 10 12 10 9 7 7 8 7 6 4 5 6 8 5 6 5 4 3 3 5 5 5 4 4 4 4 4 4 4 5 5
10 9 10 12 11 10 9 9 9 8 5 4 5 6 4 4 8 6 6 4 4 5 5 5 4 3 3 3 3 4 5 5 5
14 11 12 12 12 12 10 10 10 10 9 7 4 8 11 8 11 8 6 6 6 5 6 5 4 3 2 2 2 4 4 4 5
12 10 10 12 10 12 9 10 10 9 12 11 10 11 13 10 12 11 8 7 7 7 6 5 4 1 1 1 3 4 3 4 5
12 13 12 10 11 11 11 10 11 14 12 14 15 16 14 10 12 12 12 9 8 7 7 5 4 3 2 3 3 3 3 4 4
16 18 17 17 16 14 16 14 17 18 15 15 16 16 14 13 12 16 14 11 9 8 9 6 6 5 6 6 5 4 4 4 5
18 19 19 19 18 18 18 18 19 19 19 19 19 18 16 14 14 16 18 14 12 10 10 9 8 8 8 9 8 7 6 6 7
19 21 20 20 20 21 20 21 22 22 22 21 21 20 20 18 17 16 19 20 17 14 13 11 11 11 11 11 11 10 9 9 9
20 19 20 21 22 23 23 24 24 24 22 21 21 22 22 21 20 20 20 21 21 20 17 15 14 15 14 14 14 13 13 12 12
22 21 21 22 24 24 25 25 26 25 22 20 21 23 24 25 24 23 23 24 23 23 22 21 19 19 18 18 17 16 15 15 14
25 25 24 25 26 26 28 27 27 28 27 26 22 21 25 29 28 27 27 27 26 25 25 25 23 22 21 20 19 18 17 17 17
29 29 28 28 29 31 30 30 30 31 31 32 27 12 15 16 21 27 30 29 29 28 25 26 26 25 25 22 21 20 19 19 19
34 32 33 33 31 33 33 32 33 34 34 32 37 32 15 12 10 19 23 29 31 31 30 28 28 28 27 26 24 22 21 20 20
29 37 33 34 34 34 35 34 36 38 39 39 37 36 38 26 20 20 24 27 30 32 33 31 30 28 29 28 26 25 23 22 22

GFSFLT1_850_spd_081.txt.gz
Wind_Speed
11 12 16 12 8 7 10 12 14 17 18 19 18 18 16 16 11 12 15 14 15 12 12 10 11 11 9 7 7 8 8 7 11
12 13 16 13 9 6 8 11 13 15 17 17 16 16 13 12 9 7 7 6 4 4 5 4 3 3 1 1 2 4 5 5 4
13 12 16 13 11 8 8 10 12 14 16 16 16 15 12 11 6 5 3 2 3 5 4 3 2 1 1 2 3 3 3 3 4
13 13 16 12 10 8 8 9 10 12 14 16 15 13 10 7 7 4 3 3 4 5 4 4 3 2 2 3 3 3 3 3 3
14 13 14 13 9 8 7 7 9 10 11 12 13 10 7 5 2 2 2 2 4 5 5 4 4 3 3 3 2 3 2 2 2
9 13 12 12 10 8 8 8 9 9 10 10 11 9 8 4 1 2 2 3 3 4 4 4 4 3 3 2 3 3 3 3 3
9 10 12 12 10 8 8 8 9 10 9 9 9 9 6 3 4 3 4 4 3 3 4 4 4 3 3 2 3 3 4 4 3
11 11 9 11 11 10 9 9 10 10 10 10 9 8 8 6 5 4 5 5 4 4 4 4 3 2 1 2 2 3 3 3 4
9 10 10 11 11 11 11 11 12 12 12 9 8 10 9 10 8 6 6 7 6 5 5 3 2 1 0 2 2 2 2 3 3
9 10 10 11 13 13 12 13 14 12 11 9 10 11 13 14 12 10 8 7 8 7 6 4 3 1 1 1 1 1 1 1 2
12 12 11 10 12 12 13 12 13 13 12 13 14 15 16 15 14 13 11 9 9 9 7 6 4 3 2 2 2 2 2 2 2
14 14 12 11 11 9 12 10 13 13 13 16 18 19 19 18 17 16 14 12 11 10 11 8 7 7 6 5 4 5 5 4 4
16 15 15 13 13 13 15 15 17 18 21 19 19 20 21 20 19 17 18 15 15 13 13 11 11 11 10 9 8 7 8 7 7
18 17 17 18 18 19 19 21 21 23 23 21 22 23 22 21 21 20 20 20 18 17 16 15 13 14 14 13 13 11 10 10 9
19 19 18 20 21 21 22 23 24 25 25 23 23 25 26 25 25 24 23 23 23 21 21 20 18 17 17 17 17 16 14 13 13
19 20 20 21 23 23 23 23 25 27 27 24 26 26 27 29 28 27 28 28 27 26 26 24 22 21 21 21 21 20 17 15 15
22 21 22 23 24 25 26 27 27 27 28 29 26 24 29 34 32 31 31 32 31 30 29 29 27 26 25 25 24 23 21 20 19
27 26 26 25 26 27 28 29 30 30 30 32 26 13 19 19 25 30 33 34 34 34 32 31 30 30 29 28 27 25 25 21 21
31 30 30 29 29 30 30 31 32 32 33 34 38 38 26 15 11 19 23 29 33 34 33 32 31 31 31 29 25 24 24 23 21
30 36 30 33 33 32 32 32 35 36 37 38 39 40 41 38 28 23 24 24 28 30 32 32 33 33 32 30 27 25 23 23 21

GFSFLT1_850_spd_084.txt.gz
Wind_Speed
12 16 14 10 9 11 15 17 18 19 18 17 17 18 15 12 11 15 17 16 11 10 10 11 10 7 5 5 6 6 7 10 12
15 18 15 11 9 10 14 16 16 17 15 16 17 13 12 10 10 9 7 6 3 2 3 4 4 3 1 2 2 3 3 1 3
15 18 14 12 9 10 12 14 15 15 14 13 13 12 10 8 6 5 2 2 3 3 2 1 1 0 2 3 4 4 4 3 2
15 17 14 11 10 11 11 14 15 14 12 11 10 10 8 8 7 4 1 2 3 4 3 3 2 2 2 3 3 4 4 5 4
14 16 14 12 10 11 11 12 13 13 12 10 8 6 7 6 3 2 2 2 3 4 4 4 4 3 3 2 2 2 2 3 3
14 14 14 12 10 10 10 11 13 13 13 12 9 6 5 4 1 1 2 3 4 4 5 4 4 3 3 2 2 2 2 3 3
14 14 14 14 11 10 10 10 12 12 12 12 11 8 5 3 2 3 4 4 4 4 4 4 3 2 2 2 2 2 2 2 2
13 14 15 15 13 11 11 11 12 12 12 12 11 10 7 5 3 6 6 7 5 4 4 4 3 2 1 1 1 1 2 2 2
12 12 11 12 12 12 11 11 12 13 13 13 13 12 11 8 6 7 8 9 7 6 5 4 3 2 1 2 1 0 0 1 0
10 9 10 11 12 12 12 12 13 14 14 13 13 13 12 11 10 11 11 11 10 9 7 6 4 3 3 3 3 2 2 2 2
10 8 10 10 12 12 12 13 14 15 15 14 14 14 15 15 14 14 14 13 12 12 10 8 6 6 6 6 5 5 5 5 4
11 9 11 11 10 11 13 14 15 16 16 14 15 16 17 17 19 19 17 16 14 13 13 12 10 9 9 9 8 8 8 8 7
11 13 13 13 12 12 13 16 16 17 18 17 15 19 20 22 22 22 21 19 17 15 15 15 13 13 13 13 11 11 11 10 10
14 16 14 14 13 14 14 15 17 18 19 18 19 21 23 24 25 25 24 22 20 18 18 18 17 16 17 17 16 14 13 13 12
17 18 17 17 16 17 18 19 20 21 21 21 24 24 25 27 28 27 26 26 25 23 21 21 20 20 19 20 19 18 17 14 13
20 19 20 20 20 20 21 23 23 25 24 24 26 28 28 30 31 31 30 30 28 28 26 25 24 22 22 22 22 20 20 17 16
20 20 20 20 21 22 24 26 27 26 26 28 28 28 30 34 34 34 34 33 32 31 31 30 28 25 24 24 24 24 24 21 19
23 22 22 22 23 24 25 27 28 28 27 29 26 11 16 21 20 20 27 33 34 34 33 32 31 30 28 26 25 26 25 21 17
28 28 28 28 27 26 27 27 29 30 31 32 33 36 34 21 16 19 15 20 28 33 33 34 33 31 30 28 28 29 30 27 21
34 34 32 32 33 33 31 31 30 31 34 35 35 36 39 41 39 32 32 30 24 26 31 33 33 33 35 36 27 28 29 30 31

GFSFLT1_850_spd_087.txt.gz
Wind_Speed
15 12 10 10 11 13 15 16 15 15 15 15 15 14 14 13 15 18 15 12 9 8 9 8 6 4 4 4 4 6 9 8 9
17 14 11 9 11 12 14 14 14 14 12 14 13 13 12 11 9 9 5 4 3 2 3 2 1 1 2 4 4 4 4 2 2
16 14 12 10 10 11 12 12 12 12 11 10 10 9 8 6 5 3 2 4 4 5 5 5 4 3 4 4 4 4 4 3 3
16 13 11 10 11 11 11 11 11 10 9 8 8 9 8 7 5 3 3 4 6 6 6 5 5 4 4 4 4 5 5 4 3
15 14 12 11 11 12 12 11 11 9 8 7 6 6 5 4 3 4 4 5 6 7 7 6 6 5 5 5 4 4 4 4 4
14 15 13 11 10 10 11 11 10 10 9 7 5 3 2 1 2 4 5 6 7 8 8 8 7 6 5 5 4 4 4 4 4
15 15 15 12 11 11 11 12 12 11 10 8 6 4 3 2 2 4 6 7 8 8 8 8 7 6 5 4 4 3 4 4 3
15 16 16 15 13 11 11 11 13 13 13 11 9 7 5 5 3 4 6 8 8 8 9 9 8 7 5 3 2 3 3 3 3
12 12 12 11 11 10 11 11 12 13 13 12 12 10 8 7 7 6 7 10 9 8 8 9 8 7 5 4 3 3 3 3 3
13 12 11 11 12 11 11 11 12 13 13 13 13 13 12 10 10 9 9 12 12 11 10 9 9 8 6 5 4 5 5 4 5
11 11 10 11 11 12 12 12 12 13 14 14 13 14 15 13 12 12 12 13 14 14 13 11 10 10 8 7 7 8 8 7 6
13 11 9 9 9 11 13 14 15 16 17 16 15 16 16 16 15 15 15 16 17 16 15 15 13 12 12 11 11 10 9 9 9
13 13 9 8 10 10 11 12 14 15 17 16 16 16 17 17 18 19 19 20 19 18 17 16 16 15 15 15 15 13 12 12 11
14 12 10 9 11 12 12 13 15 16 17 17 17 18 18 19 21 22 23 23 22 20 19 18 17 18 17 17 16 16 16 14 12
16 14 12 12 14 15 15 15 16 18 16 17 18 19 20 23 25 25 26 26 25 24 22 21 21 19 20 20 17 15 18 18 14
18 16 14 16 18 17 16 17 19 20 18 20 21 23 25 27 28 28 29 29 28 27 26 24 23 22 21 21 21 17 15 15 15
20 19 18 19 20 20 20 21 22 22 22 23 24 25 26 29 28 28 28 29 30 29 28 27 27 25 24 23 22 21 17 15 11
23 22 22 22 22 22 22 23 25 25 25 25 22 10 12 17 15 11 14 18 21 26 28 28 29 29 28 26 26 27 28 30 29
26 27 27 26 25 26 24 23 25 26 27 28 29 31 33 25 19 22 20 22 25 25 25 25 27 29 30 31 32 34 34 33 33
30 29 29 30 30 30 29 30 29 29 28 29 30 33 34 35 37 34 34 33 32 31 30 29 28 29 31 33 33 33 32 36 32

GFSFLT1_850_spd_090.txt.gz
Wind_Speed
11 9 11 12 13 14 16 16 15 15 14 15 14 14 15 17 16 16 13 12 10 8 7 5 5 4 5 4 5 5 6 6 6
12 10 10 11 13 14 15 15 14 14 14 14 13 14 14 12 10 9 7 7 5 6 5 4 5 5 5 5 5 4 3 3 4
13 11 10 10 12 12 13 13 12 12 12 12 11 11 10 8 5 4 6 8 9 8 8 8 8 8 7 7 7 6 5 5 4
14 12 11 10 11 11 11 11 10 9 9 9 9 9 9 8 7 6 7 8 9 10 10 10 9 8 8 8 7 7 7 6 6
15 13 12 10 10 10 10 10 9 8 7 6 7 7 6 6 6 7 7 8 9 9 10 10 9 9 9 8 8 8 7 7 8
16 14 12 11 10 9 9 9 8 7 6 5 4 4 3 3 5 7 8 9 9 10 10 11 10 10 9 8 8 8 8 7 7
16 16 13 13 12 11 10 9 9 7 6 4 3 2 1 2 4 6 8 9 10 9 10 11 10 9 8 6 6 6 7 7 7
14 18 17 15 13 11 11 11 10 8 7 7 5 3 3 3 4 6 7 9 10 10 10 11 10 9 8 6 5 6 5 6 6
12 11 11 10 10 10 10 9 10 10 10 9 8 7 6 5 5 6 7 8 10 12 11 11 11 10 8 6 5 5 5 5 5
11 11 11 11 10 9 9 9 10 11 12 12 11 10 9 8 9 8 8 9 10 12 12 12 11 10 9 7 6 6 6 6 6
11 11 10 10 10 10 11 10 11 12 13 13 12 12 12 11 11 10 10 11 12 13 14 14 13 12 11 10 8 8 9 8 8
12 10 9 9 10 10 12 13 12 13 14 14 14 14 14 14 13 12 12 12 13 14 14 15 15 13 13 13 12 11 11 10 10
12 13 10 8 10 10 10 11 12 12 13 13 14 15 15 15 14 14 14 14 14 15 15 15 15 15 14 14 14 14 14 13 13
13 12 11 10 10 11 10 10 11 11 12 12 12 15 16 17 16 16 16 17 17 16 16 17 16 16 16 14 10 13 18 17 13
14 14 12 13 12 12 12 11 12 12 13 14 16 17 17 18 18 18 18 19 20 20 19 18 18 17 17 16 15 12 15 21 19
16 15 14 15 16 12 12 14 15 16 15 17 18 19 20 21 21 21 22 22 22 22 22 20 20 19 19 18 17 16 14 19 20
17 17 17 16 16 16 16 17 18 19 18 19 19 19 22 22 19 16 14 13 15 18 20 20 21 21 20 20 20 21 20 16 17
19 19 19 18 19 19 18 19 20 21 21 21 19 10 9 13 16 14 20 20 13 12 17 20 19 20 21 22 24 25 25 26 31
21 22 22 23 24 24 23 22 22 23 23 24 26 27 28 24 20 25 26 26 25 25 25 23 21 22 23 25 26 27 27 29 29
26 26 26 27 28 27 27 28 28 27 27 27 28 29 29 29 31 29 28 28 27 28 30 24 25 27 26 27 26 27 30 32 29

GFSFLT1_850_spd_093.txt.gz
Wind_Speed
11 13 15 16 18 19 19 18 17 16 17 16 17 17 18 16 17 15 14 13 9 6 4 4 3 5 5 5 5 3 2 2 1
10 12 14 16 18 18 18 18 17 17 16 16 17 16 16 13 11 10 10 10 9 8 7 8 7 7 7 6 5 3 3 4 5
12 12 13 15 17 17 17 16 16 17 16 15 15 13 11 9 8 9 10 11 10 10 10 10 10 10 9 8 7 6 5 5 5
13 12 13 14 15 15 15 14 14 14 14 13 12 12 11 10 10 10 10 11 12 12 12 11 11 10 10 9 9 9 9 9 8
14 12 12 13 13 13 12 11 11 11 11 11 10 10 9 9 10 10 10 11 11 11 11 11 11 10 9 9 9 10 10 10 10
16 14 12 12 12 11 10 9 9 8 8 7 8 7 6 7 8 9 9 10 10 10 11 11 10 10 9 9 9 9 9 9 9
19 16 13 13 12 11 10 9 7 6 5 5 4 4 4 4 6 7 9 10 11 10 11 11 10 9 9 8 8 8 8 8 8
16 17 16 14 12 11 9 7 6 5 5 4 3 1 1 2 3 5 7 8 9 10 10 10 10 9 8 7 6 6 7 7 7
14 14 12 11 10 9 8 7 7 7 7 6 5 4 2 2 3 4 5 7 9 10 11 11 11 10 9 7 5 5 5 5 5
13 14 14 13 12 10 8 7 8 9 9 8 8 7 6 5 4 5 5 6 7 10 11 11 11 10 10 8 7 6 6 6 6
12 12 12 12 11 11 10 10 10 10 11 11 10 9 7 7 7 7 7 7 7 8 10 11 11 11 10 9 8 8 8 8 7
14 12 12 11 11 11 11 11 11 11 11 12 12 11 10 9 9 9 9 8 8 8 9 10 11 11 11 12 10 9 9 9 10
14 13 11 11 11 12 10 11 11 11 11 11 11 12 12 11 11 11 10 9 9 10 10 10 11 12 12 12 14 13 11 11 12
13 13 13 12 11 11 10 9 10 9 9 9 10 12 13 13 13 13 11 11 11 11 11 12 12 12 12 12 10 12 17 17 14
14 14 13 14 13 12 11 10 9 9 9 11 12 13 14 15 14 14 14 13 13 14 14 15 14 14 14 13 13 11 15 19 19
16 15 15 15 16 13 12 12 12 11 11 13 15 15 16 17 16 15 15 15 14 14 14 15 15 15 15 15 15 15 14 19 22
17 16 16 17 16 16 16 15 14 14 14 15 16 15 17 17 13 10 8 5 12 13 10 7 9 12 15 16 16 17 17 15 20
17 17 17 18 18 19 18 17 16 16 16 16 15 8 8 12 17 17 15 19 16 15 17 16 19 19 19 18 19 20 20 20 18
20 19 19 18 20 22 22 21 22 21 20 21 21 21 24 20 16 19 21 23 23 23 22 18 18 17 20 19 21 22 21 22 26
21 21 21 22 24 24 25 24 26 24 24 25 24 25 26 26 28 26 23 24 26 23 21 20 21 20 21 21 19 20 20 22 24

GFSFLT1_850_spd_096.txt.gz
Wind_Speed
15 15 17 19 20 19 19 19 19 17 17 17 17 19 17 17 15 13 13 10 6 5 7 7 5 4 4 3 2 3 4 5 6
14 16 18 19 19 19 18 18 19 18 18 18 19 17 15 12 12 12 10 9 8 8 8 8 7 7 6 5 4 3 4 4 5
13 16 17 18 18 18 18 18 18 18 18 17 16 13 12 11 11 11 11 11 11 11 10 10 10 9 9 8 8 7 7 7 9
12 15 16 16 17 17 17 17 17 17 15 14 13 13 12 11 11 10 9 11 11 11 11 11 11 10 10 9 9 9 9 10 10
12 13 14 15 15 15 15 15 14 14 13 13 12 12 11 9 10 9 10 10 11 12 11 11 10 10 9 9 9 9 9 10 10
13 12 13 13 13 13 12 12 11 10 10 10 9 9 7 7 8 7 9 10 10 10 10 10 10 10 8 8 8 8 8 8 9
15 15 13 13 12 11 11 10 9 8 7 7 7 5 5 5 6 5 7 8 9 9 9 9 9 9 8 7 7 7 7 7 7
16 15 14 13 13 11 9 9 8 8 7 5 4 4 2 2 2 3 5 6 7 8 8 9 9 8 7 6 6 6 6 6 7
14 13 12 11 10 9 9 9 9 8 6 5 4 3 2 1 0 3 3 5 6 7 7 8 8 7 6 5 4 4 5 6 5
15 15 14 12 11 10 10 9 9 8 7 7 6 5 4 4 3 3 4 4 5 6 7 6 7 7 6 6 5 4 5 5 5
16 16 15 13 12 12 11 10 9 8 8 8 7 7 6 6 6 6 6 6 6 6 7 7 7 7 8 7 7 6 7 7 7
16 15 16 15 14 14 14 12 11 10 9 9 8 8 8 7 8 8 7 8 8 7 7 7 8 8 9 10 8 8 8 8 8
18 17 16 16 15 15 14 13 13 12 10 10 10 10 11 10 10 10 9 9 9 10 9 9 9 9 9 9 13 12 11 10 10
17 18 17 16 15 15 15 13 12 11 11 11 11 10 11 11 12 11 11 12 11 11 12 11 11 12 11 11 10 14 17 15 13
17 17 19 18 17 15 15 13 12 11 11 11 11 11 12 13 13 13 13 14 13 13 13 14 14 13 13 13 12 12 17 20 18
19 18 18 18 18 16 14 14 14 12 12 11 11 13 15 15 14 14 14 14 12 10 8 10 12 13 12 13 14 14 14 19 21
20 19 19 18 18 18 17 16 15 14 14 11 10 7 8 11 9 8 6 8 8 12 10 11 9 12 15 15 16 16 17 16 23
19 18 19 20 19 19 18 19 18 17 17 17 12 6 7 6 11 12 12 14 16 15 17 15 17 17 18 18 18 19 18 20 19
21 21 21 20 21 23 23 21 20 21 23 21 22 21 19 11 10 15 18 19 19 20 21 22 21 19 18 17 19 19 18 19 20
19 23 21 22 25 25 23 24 26 26 26 26 25 23 23 24 24 16 16 22 23 21 20 21 21 21 19 19 20 18 19 18 18

GFSFLT1_850_spd_099.txt.gz
Wind_Speed
15 17 18 20 20 20 20 19 18 18 20 21 22 22 23 16 13 12 7 9 8 9 8 8 7 6 5 5 5 6 7 7 8
15 18 19 19 20 21 19 18 18 18 19 20 18 19 19 13 13 10 10 11 10 9 10 9 9 8 7 7 7 7 7 8 9
15 17 18 18 19 19 18 18 18 18 19 17 15 14 17 12 12 11 12 11 11 11 11 11 10 10 10 10 10 10 10 10 10
14 16 17 17 18 18 17 17 18 17 16 14 14 13 15 12 13 9 11 12 12 12 12 12 12 12 11 11 11 10 10 11 12
13 14 16 16 16 16 16 16 15 15 14 14 13 15 16 10 9 8 10 11 11 11 11 12 12 11 11 10 10 10 10 11 12
12 13 14 15 15 14 14 13 12 11 11 11 10 13 7 7 6 8 8 9 9 10 11 11 11 10 10 9 9 9 10 10 11
13 15 14 14 13 13 12 11 10 9 7 8 8 7 6 6 5 6 7 8 9 9 9 9 9 9 8 8 8 8 9 9 9
14 15 15 14 13 12 11 10 9 6 5 2 3 5 4 3 3 3 4 6 7 7 7 7 7 7 6 6 6 6 6 7 8
13 11 9 8 9 7 7 5 5 8 6 5 4 3 3 4 3 3 3 4 4 5 5 5 5 5 5 5 4 4 5 6 7
12 12 11 10 9 9 8 7 8 7 6 7 7 6 3 3 2 5 4 5 5 5 5 5 4 5 5 4 4 4 5 5 6
16 14 17 13 11 10 9 8 8 8 8 8 7 6 6 5 5 4 7 6 7 7 7 7 6 5 5 5 5 5 5 5 6
15 14 14 13 12 11 10 9 9 7 9 9 8 8 7 6 7 6 4 9 8 8 9 9 8 8 9 8 6 6 6 6 7
14 13 13 13 12 12 11 10 9 9 9 7 8 9 10 9 7 9 7 8 9 10 10 10 11 10 9 10 12 9 8 8 9
14 14 13 13 13 13 12 10 10 10 11 10 12 11 10 9 9 9 9 10 11 10 13 12 12 13 11 10 10 13 14 12 11
15 13 14 14 14 13 14 14 13 11 10 10 11 11 10 10 10 10 10 11 13 11 13 15 13 13 13 12 11 10 15 18 15
17 15 15 16 15 14 13 12 13 14 13 11 10 12 13 13 13 12 11 12 12 11 7 10 12 13 11 11 11 12 12 16 19
17 16 15 17 16 16 16 16 15 15 15 12 8 6 8 12 12 12 10 8 10 10 11 12 12 11 14 14 14 16 16 15 17
18 19 18 17 17 18 17 18 18 16 17 16 12 4 7 8 11 11 12 12 13 15 15 14 16 15 17 19 19 17 17 18 18
17 20 19 18 18 18 19 20 20 19 20 20 21 20 14 8 7 12 14 15 16 18 19 19 18 19 20 21 17 18 17 19 19
17 17 19 17 20 20 21 22 22 25 25 25 25 23 23 26 24 16 16 18 18 19 20 19 19 20 24 20 19 18 18 18 18

GFSFLT1_850_spd_102.txt.gz
Wind_Speed
19 18 20 21 21 21 21 21 22 24 26 26 25 21 19 12 8 8 10 11 12 12 11 10 9 8 7 8 8 9 10 11 11
20 21 21 22 22 20 19 21 22 23 23 23 23 20 13 9 10 12 12 13 13 13 12 12 11 10 10 10 10 11 11 12 12
20 20 22 23 20 20 20 20 21 21 20 18 17 17 13 13 13 13 13 13 13 13 13 12 12 11 11 11 12 12 13 13 14
18 19 20 20 20 20 19 20 20 19 17 15 15 15 15 11 13 12 12 13 13 13 13 13 12 12 12 12 13 13 14 14 14
17 17 19 19 20 19 18 19 18 16 16 16 16 16 13 8 9 10 11 12 12 12 12 12 12 11 11 12 12 13 13 13 13
16 16 18 18 18 18 17 16 15 14 14 14 14 14 9 2 8 8 10 11 11 11 11 10 10 9 10 10 10 11 11 12 12
16 17 16 17 16 16 15 14 13 11 10 11 11 11 3 1 5 6 8 8 9 9 9 9 8 8 8 8 8 8 10 11 11
16 16 17 16 15 14 13 12 12 9 6 5 9 7 1 4 2 4 5 6 6 7 7 7 7 6 6 6 6 7 8 8 9
14 14 14 13 13 12 11 10 8 12 8 2 1 5 3 4 5 3 4 4 5 5 6 6 6 5 5 5 5 5 6 7 8
12 13 11 11 9 8 8 6 4 8 8 8 8 8 6 7 7 5 5 5 5 5 5 5 5 5 5 5 5 5 5 6 6
6 8 8 7 8 8 7 10 10 8 8 7 8 8 7 8 6 8 6 5 6 7 7 6 6 6 6 6 5 5 5 5 6
17 15 18 15 13 13 10 8 9 7 8 10 9 7 6 7 8 8 8 7 7 8 8 8 8 8 9 8 6 5 5 5 6
21 21 16 15 13 13 14 14 12 11 10 9 9 10 10 12 12 8 9 9 8 8 8 10 10 10 10 12 11 8 5 7 7
17 18 17 16 18 17 17 14 12 10 11 11 10 12 11 11 11 11 10 10 11 10 10 10 11 12 11 10 11 12 10 7 7
17 16 15 15 17 16 16 15 14 14 12 12 12 12 11 11 11 10 10 11 11 11 12 11 9 10 11 12 10 9 13 13 13
16 18 17 18 18 15 15 14 15 13 14 13 10 10 11 13 13 13 12 12 12 10 10 9 11 11 11 10 11 12 13 16 17
19 17 17 17 17 16 15 14 13 14 13 11 8 7 9 12 11 12 11 10 12 11 11 12 13 13 14 14 14 15 16 16 16
20 15 16 16 15 16 16 16 15 13 13 12 10 4 5 6 9 11 12 13 13 15 16 15 16 17 19 16 19 19 20 17 17
21 17 17 17 17 15 15 16 15 15 16 15 16 18 14 8 7 13 14 16 16 16 18 19 18 18 18 19 20 21 19 16 16
13 16 17 17 17 17 14 19 15 16 17 17 19 19 21 23 24 17 17 17 17 19 20 19 19 18 19 20 22 21 19 16 18

GFSFLT1_850_spd_105.txt.gz
Wind_Speed
21 18 21 19 21 23 26 27 29 28 26 21 18 13 13 9 8 11 13 14 15 14 13 12 12 12 11 12 12 13 14 15 16
21 24 25 24 23 24 26 28 28 25 24 21 15 11 10 11 12 13 14 16 15 15 14 14 13 14 14 14 14 15 15 16 16
24 25 25 22 21 24 25 27 26 23 21 17 13 13 13 14 14 14 15 15 15 14 14 14 14 14 15 15 15 15 15 16 16
24 27 23 22 23 22 22 24 22 20 18 16 13 13 16 14 14 14 14 14 14 13 13 13 13 14 14 14 14 14 15 15 16
22 23 22 23 22 21 22 22 20 18 17 16 15 12 13 13 12 12 12 12 12 12 12 12 12 12 12 13 13 13 13 13 14
20 22 23 22 21 21 21 19 17 17 16 14 13 9 11 9 10 10 10 10 10 10 10 10 10 10 10 11 11 11 11 12 13
20 20 22 21 20 19 19 18 17 15 13 12 10 5 8 6 7 7 8 8 9 9 9 9 8 8 8 8 8 8 9 10 11
19 20 20 20 19 18 17 17 16 15 12 9 9 3 3 4 4 5 6 6 6 6 7 7 7 6 6 6 6 6 7 7 8
18 18 18 18 17 16 16 15 14 14 11 8 6 4 4 2 3 3 4 4 4 5 5 6 5 5 5 5 5 4 5 5 6
17 16 15 15 14 14 13 12 9 9 7 7 6 7 5 5 4 3 3 4 4 4 5 5 5 5 5 5 4 4 4 4 4
11 15 15 14 13 13 11 12 10 10 11 11 10 8 8 7 6 5 4 5 5 5 5 5 6 6 6 6 5 3 3 3 3
10 11 15 12 9 9 8 9 10 10 11 11 10 9 8 7 8 6 6 5 5 5 5 6 6 7 7 6 6 5 3 3 3
14 12 11 9 11 11 12 12 12 11 11 11 11 10 9 9 9 8 7 6 7 6 6 7 7 8 9 11 9 5 3 4 3
20 20 19 18 19 16 16 15 14 13 13 11 11 12 12 11 12 12 10 9 9 8 9 8 8 8 8 9 10 11 8 6 6
21 23 24 20 20 20 20 18 16 14 12 12 13 14 13 12 12 12 12 12 13 12 11 11 9 9 9 9 9 10 13 15 14
19 19 23 22 20 20 19 18 17 16 15 14 12 12 12 12 11 12 13 14 14 13 12 12 11 11 11 10 9 11 12 16 19
19 19 21 21 20 19 18 17 17 17 15 14 11 8 9 10 10 11 12 14 14 15 14 15 14 14 14 13 13 13 14 16 19
22 21 21 20 20 18 17 17 16 15 14 14 10 5 5 4 5 9 11 13 15 15 17 18 18 17 16 17 17 18 18 19 21
25 25 23 22 22 18 13 16 17 16 16 14 15 14 14 8 6 10 13 15 18 20 20 20 19 19 19 19 21 20 22 22 23
28 23 18 21 26 19 16 16 17 19 18 18 11 14 17 16 17 22 16 18 20 21 22 21 20 21 20 20 21 21 22 23 24

GFSFLT1_850_spd_108.txt.gz
Wind_Speed
21 21 17 16 22 29 29 28 24 20 16 15 14 12 10 8 10 12 14 15 14 13 13 13 13 14 14 15 15 16 17 17 18
22 23 20 23 28 30 30 28 24 19 15 15 14 11 10 11 13 14 15 16 15 14 14 14 14 15 15 15 16 16 17 17 17
27 25 25 26 27 30 29 26 21 17 16 14 13 13 12 13 14 15 15 15 14 14 13 14 14 14 15 15 15 16 16 16 16
29 25 23 25 27 28 27 24 21 16 14 15 15 15 14 13 14 14 14 13 12 12 12 12 13 13 13 14 14 14 14 14 15
27 26 26 26 25 27 24 22 19 16 13 15 14 14 13 12 12 12 12 12 11 11 11 11 11 11 11 12 12 12 13 13 13
25 27 26 25 25 25 23 20 18 16 13 11 12 12 12 10 10 10 10 9 9 9 9 9 9 9 9 9 10 10 10 10 10
25 28 25 24 25 24 22 19 19 16 12 8 10 10 9 7 8 7 7 8 8 8 8 8 8 7 7 7 8 7 7 7 8
23 27 25 24 24 23 22 21 19 16 12 8 6 7 7 5 4 5 5 6 6 6 6 6 6 7 7 6 6 5 5 5 5
23 23 23 22 22 21 20 19 18 16 12 10 5 4 3 2 2 3 4 4 4 5 5 5 6 6 6 5 5 4 4 4 4
23 22 21 21 20 19 18 17 15 13 11 10 7 4 2 2 1 1 2 3 3 3 4 5 5 6 6 5 5 4 4 3 3
20 21 21 20 18 17 16 14 12 12 11 9 7 6 7 7 4 3 2 2 2 2 3 3 4 5 5 6 5 5 4 3 2
16 19 20 19 18 16 16 14 13 11 11 12 10 10 10 10 7 5 5 4 3 3 3 3 4 5 5 5 5 4 4 3 2
16 19 19 18 17 16 13 13 13 12 13 14 13 12 11 11 10 8 7 6 5 5 5 5 5 6 8 8 6 4 4 4 4
18 17 16 15 14 12 12 12 12 13 13 13 14 15 14 13 13 11 10 8 8 7 7 7 7 7 7 9 10 11 9 7 7
17 17 16 17 15 15 16 16 16 15 15 16 16 15 15 15 14 14 13 13 11 10 9 10 10 10 9 9 9 10 14 16 14
18 18 19 21 22 20 19 19 20 19 17 16 17 17 17 18 16 15 15 14 13 12 11 11 12 13 12 12 11 11 12 16 17
21 20 22 23 23 22 22 22 21 20 18 18 16 13 15 16 15 15 15 13 14 14 13 14 14 15 16 14 12 15 12 14 18
21 20 19 21 23 23 21 19 20 20 20 19 15 7 8 7 8 9 12 13 14 15 16 16 17 18 17 15 18 18 19 20 20
21 21 20 25 25 24 22 18 19 20 20 18 20 21 11 6 5 7 7 12 15 17 19 19 20 21 19 18 20 21 21 22 23
21 21 21 24 29 30 26 23 23 24 22 17 20 21 21 19 18 16 12 14 15 18 20 21 22 24 18 21 21 23 23 23 23

GFSFLT1_850_spd_111.txt.gz
Wind_Speed
24 20 15 15 21 24 23 21 20 18 16 14 13 12 10 11 12 13 14 14 13 13 13 14 14 15 15 16 16 17 18 18 18
25 19 15 20 26 25 22 20 18 18 15 14 13 13 12 12 13 14 15 14 14 14 14 14 14 15 15 16 16 16 16 17 17
24 20 21 26 28 26 22 19 17 17 16 15 15 15 13 13 14 14 14 14 14 14 13 13 13 14 14 15 15 15 15 15 15
26 25 26 28 28 25 22 19 18 16 16 16 16 15 14 13 13 13 14 13 13 12 12 12 12 12 13 13 13 13 13 14 14
28 27 28 28 27 25 21 19 17 16 16 16 15 14 14 12 12 12 12 11 11 11 11 10 10 11 11 11 11 11 11 12 12
26 25 28 28 26 24 21 17 15 15 15 14 13 13 12 11 11 10 10 10 9 9 9 9 9 9 9 9 9 9 9 9 9
26 26 27 27 26 23 20 17 14 15 13 12 11 11 10 9 8 8 8 8 8 8 8 8 8 8 7 7 7 7 7 8 7
31 29 26 27 27 24 21 19 16 12 10 10 9 8 8 7 6 6 6 6 6 7 7 7 7 7 6 6 6 6 5 6 6
30 30 27 27 27 24 21 20 17 13 10 9 7 6 5 4 4 4 4 4 5 5 6 6 6 6 6 6 6 5 5 5 5
28 28 27 26 25 23 22 19 16 13 10 7 7 5 3 2 1 1 2 3 3 3 4 4 5 5 6 6 6 5 5 4 4
26 26 26 25 22 21 19 17 15 13 11 9 7 5 4 3 3 2 1 0 1 1 1 2 3 4 5 5 5 5 4 4 4
24 24 24 22 21 19 19 18 15 14 13 11 9 8 8 7 7 6 4 3 3 2 1 2 2 3 4 5 5 4 4 4 4
21 22 22 21 20 19 19 17 15 14 13 12 11 11 12 11 10 9 8 6 5 4 3 3 4 4 5 6 6 6 5 6 6
17 19 19 20 20 19 17 15 14 13 12 12 14 15 15 15 14 13 12 10 9 7 6 5 5 6 6 7 8 10 12 10 8
18 17 18 19 19 18 17 15 14 13 12 13 16 17 17 18 18 16 15 14 13 11 10 9 7 7 7 8 8 8 12 15 14
19 19 19 19 19 17 14 15 16 15 15 16 18 19 19 20 20 19 18 17 16 15 12 12 11 10 9 10 8 7 12 14 16
19 19 20 20 19 18 17 17 18 18 18 19 17 15 18 20 19 20 20 18 17 16 14 14 15 14 13 12 10 8 14 15 17
22 21 19 19 21 20 20 19 20 21 21 20 17 7 9 7 12 16 18 17 17 16 16 15 15 17 17 15 13 11 15 15 18
22 26 25 21 20 21 21 17 20 22 25 23 22 23 17 4 4 9 11 12 14 16 16 17 19 19 20 18 16 16 18 19 21
35 33 27 22 20 22 25 27 26 26 27 29 24 23 25 25 23 19 15 12 9 11 13 15 18 19 22 21 18 18 18 20 21

GFSFLT1_850_spd_114.txt.gz
Wind_Speed
23 19 17 16 20 21 21 20 19 17 14 13 13 13 14 13 14 14 15 16 15 15 15 15 16 16 17 17 18 18 19 19 19
23 18 16 18 23 22 22 21 19 15 14 14 14 15 15 14 14 15 16 16 16 16 15 16 16 16 16 17 17 17 17 17 18
22 18 17 23 23 23 22 19 18 16 15 16 16 15 14 14 14 15 16 16 15 15 15 15 15 15 15 15 15 15 15 16 16
21 18 22 26 23 23 21 20 19 17 17 17 17 16 14 14 14 15 15 15 14 14 14 14 14 14 13 13 13 14 14 14 14
22 22 28 26 24 23 21 20 19 18 18 16 16 15 14 13 13 13 14 13 13 13 13 12 12 12 11 12 12 12 12 12 12
26 28 29 25 24 22 21 19 18 17 16 15 14 13 13 12 12 12 12 12 11 11 11 11 10 10 10 10 10 10 10 10 11
30 29 29 25 24 22 20 18 17 16 15 13 12 11 11 11 10 10 10 10 10 10 10 9 9 9 9 8 8 8 9 9 9
30 31 30 27 24 21 19 18 16 14 13 12 10 9 9 9 8 8 8 8 8 8 8 8 8 8 8 7 7 7 8 8 7
31 31 30 28 25 22 18 17 16 14 11 10 8 8 7 6 6 6 6 6 6 6 6 7 7 7 7 7 7 7 6 6 6
32 30 29 29 26 23 19 17 13 11 10 8 7 5 4 4 3 3 4 4 3 4 4 5 5 6 6 6 6 6 5 6 6
32 30 29 28 26 22 19 17 13 11 9 7 6 5 4 2 1 0 0 0 1 1 2 2 3 3 4 5 5 5 5 5 5
29 29 28 26 24 22 20 19 16 13 10 8 7 7 6 4 4 4 4 3 3 1 0 1 2 2 3 3 4 4 4 4 5
27 27 26 24 23 21 20 19 16 14 12 11 10 9 10 9 7 8 7 7 5 4 4 3 3 3 4 5 4 5 4 5 5
24 24 23 22 21 20 19 18 15 13 12 11 12 13 13 13 13 12 11 11 9 8 7 6 5 5 5 6 7 8 8 10 9
24 23 22 22 21 20 20 17 15 13 12 12 13 14 15 17 17 17 16 14 14 11 11 10 8 7 7 7 7 6 8 12 12
24 23 24 22 22 20 17 15 16 14 13 14 15 17 19 20 20 19 19 18 16 15 14 12 12 11 9 10 9 8 7 12 14
24 23 23 21 21 20 19 16 15 14 14 15 16 15 17 17 19 23 23 21 19 17 15 14 13 13 12 13 11 10 10 11 12
21 20 20 19 19 19 18 17 15 14 14 16 15 7 7 9 13 16 21 21 18 17 16 15 14 12 14 16 15 15 15 14 16
20 18 18 18 18 18 16 17 14 17 18 20 20 21 25 14 8 9 11 13 16 16 15 14 13 13 13 16 19 17 15 17 17
20 17 19 21 17 15 17 14 14 26 26 24 23 29 29 29 28 25 16 12 11 12 13 12 14 12 10 15 20 19 17 19 18

GFSFLT1_850_spd_117.txt.gz
Wind_Speed
24 23 18 17 21 23 24 22 20 18 15 14 14 15 15 14 15 15 16 17 17 17 17 18 18 18 18 18 19 19 18 19 18
23 20 18 18 22 24 23 21 18 16 15 15 17 17 16 15 15 16 17 18 17 17 17 17 17 17 17 17 18 18 18 17 18
22 18 17 21 23 23 23 21 17 17 17 17 18 17 16 15 15 16 17 17 17 17 17 16 16 16 16 16 16 16 16 16 16
22 19 19 24 24 22 21 20 18 18 18 18 18 17 16 15 15 16 16 15 15 16 15 14 14 14 14 14 14 14 14 14 14
22 20 24 25 25 22 22 21 19 19 19 18 17 16 15 14 14 15 15 14 14 13 13 13 12 12 12 12 12 12 12 12 12
22 23 26 26 25 23 22 21 21 19 18 17 16 15 14 14 13 13 13 12 12 11 11 11 10 10 10 10 10 10 10 10 10
23 29 26 27 25 24 22 21 20 18 17 16 14 13 13 12 12 12 11 11 10 10 10 9 9 9 9 9 8 8 8 8 8
29 32 26 28 26 25 22 20 18 16 15 14 13 12 11 10 10 10 9 9 9 9 8 8 8 7 7 7 7 7 7 7 7
35 35 30 30 27 24 22 20 18 15 14 12 11 11 9 8 8 7 7 7 7 7 6 7 6 6 6 6 6 6 6 6 6
37 36 32 30 27 24 22 19 16 14 12 10 9 8 7 6 6 5 5 5 5 4 4 4 4 4 4 5 5 5 5 5 6
35 34 32 30 26 22 19 17 15 13 11 8 7 6 5 4 4 3 3 3 3 3 3 2 2 2 2 3 4 5 5 5 5
35 34 33 30 26 22 19 19 15 12 10 8 6 6 6 5 4 4 4 4 3 3 3 2 1 1 0 1 3 4 4 3 4
34 33 31 30 27 24 20 18 15 13 10 8 8 7 7 7 7 7 7 7 6 6 5 5 4 3 3 2 2 2 1 4 3
32 31 30 28 27 24 21 19 16 13 10 9 10 11 11 11 11 11 10 10 10 9 8 8 7 6 6 5 6 7 7 8 8
31 30 28 27 25 24 22 19 16 13 12 12 11 12 12 13 14 14 14 15 14 13 12 12 11 10 8 8 7 8 11 11 11
31 29 27 26 25 22 19 18 17 13 11 11 12 13 15 16 16 16 17 17 17 17 16 16 15 14 12 11 8 8 9 13 13
29 28 28 26 24 22 20 18 14 12 12 12 11 10 12 12 11 14 18 20 20 20 18 17 17 15 15 13 13 9 11 11 12
27 28 27 25 23 21 19 17 14 11 12 13 12 6 5 9 9 11 15 18 20 20 19 18 17 16 16 14 16 13 15 16 16
25 24 22 21 19 18 17 15 14 12 16 17 16 17 20 14 15 13 11 11 14 17 18 19 17 16 17 15 12 13 16 16 16
26 22 20 19 18 18 17 16 16 17 17 18 20 18 19 23 27 25 26 24 14 15 18 18 19 16 16 12 13 12 16 18 17

GFSFLT1_850_spd_120.txt.gz
Wind_Speed
23 22 19 20 24 25 22 21 20 16 14 14 15 15 15 15 15 15 16 15 16 17 17 17 17 17 17 17 18 18 18 18 19
26 23 19 22 25 24 22 20 18 15 14 15 17 17 16 15 16 15 15 15 16 16 16 16 16 16 16 16 17 17 17 18 17
25 22 19 23 26 24 21 19 16 15 16 17 18 18 17 16 16 15 15 15 15 15 15 15 14 14 14 14 14 14 14 14 13
24 21 20 24 25 24 21 18 17 17 18 18 18 17 17 15 15 14 14 14 13 13 13 13 12 12 12 12 12 12 12 12 12
24 21 22 26 25 24 21 19 18 18 18 18 18 17 16 14 14 12 13 12 12 11 11 11 11 11 10 10 10 10 10 10 11
23 21 26 26 23 22 21 20 20 19 18 18 17 16 14 12 11 11 12 11 10 10 9 9 9 8 8 8 8 8 9 9 9
23 23 27 27 24 23 21 21 20 19 18 17 16 13 13 12 11 10 10 9 9 8 8 8 7 7 7 7 7 7 7 8 8
24 29 28 27 24 24 23 22 19 17 16 16 14 13 12 10 10 9 9 8 7 7 7 6 6 6 6 6 6 6 6 6 7
24 28 25 26 23 23 24 19 19 17 15 14 13 11 10 10 9 7 7 7 6 6 5 5 5 5 5 5 5 5 5 5 5
26 33 27 25 23 24 23 20 19 16 14 13 12 11 9 9 8 6 6 6 5 5 4 3 3 2 3 4 5 4 4 4 4
29 38 29 24 23 24 23 20 17 15 13 11 10 9 8 7 6 5 4 4 4 4 4 3 2 1 0 2 2 3 2 3 3
37 38 31 24 24 22 20 20 16 14 13 10 9 8 7 6 5 6 6 6 6 5 5 5 5 4 3 2 1 2 2 3 2
38 37 30 24 25 24 22 20 16 13 11 8 8 7 8 8 8 8 8 8 8 8 8 8 7 7 6 5 3 1 0 4 5
35 29 25 24 24 25 22 19 15 13 11 9 9 9 9 10 10 10 11 11 12 12 12 11 10 9 8 8 7 5 6 5 5
28 27 26 26 26 24 23 20 17 12 10 10 10 10 11 11 12 12 13 15 15 16 16 15 14 13 12 10 9 8 12 12 10
28 25 26 30 29 26 22 19 18 16 13 10 10 12 12 13 14 15 16 17 18 19 19 19 18 17 15 14 12 9 10 14 13
32 31 30 30 28 26 24 22 19 17 13 9 8 5 6 8 9 10 12 16 19 21 21 21 21 19 18 17 14 14 14 14 15
32 31 30 29 28 26 24 21 19 15 12 13 6 3 2 4 8 8 15 15 17 21 22 22 21 21 20 20 17 18 17 16 16
30 30 30 28 28 26 22 19 18 16 11 13 12 12 15 8 9 8 16 17 16 17 20 23 23 23 21 20 19 17 14 16 17
31 30 28 25 24 21 20 19 18 18 16 14 13 14 14 16 14 18 17 18 22 24 19 22 21 20 20 20 20 16 15 16 16

GFSFLT1_850_spd_123.txt.gz
Wind_Speed
21 19 19 24 23 21 21 22 19 16 15 15 15 14 16 15 14 15 14 15 16 16 16 16 16 16 17 16 16 17 18 18 18
22 21 21 24 24 21 22 20 17 14 14 15 16 17 20 13 14 13 14 16 16 16 15 15 15 15 15 16 16 17 16 15 16
23 22 22 25 24 21 20 18 15 14 15 16 18 18 20 14 14 13 14 15 15 14 14 14 14 14 13 13 13 13 13 14 15
24 22 22 25 23 20 19 16 15 15 17 18 18 19 20 13 13 12 13 14 13 13 13 13 12 12 12 12 12 12 12 13 13
25 22 23 26 24 21 18 16 16 17 18 19 18 18 17 13 12 10 12 12 12 11 11 11 10 10 10 10 10 10 11 11 12
25 22 25 26 25 21 18 17 18 18 19 19 18 17 11 10 8 11 11 10 10 10 9 9 9 9 8 8 9 9 9 10 11
25 23 26 25 23 22 19 18 19 18 19 18 15 12 10 10 7 10 10 9 9 8 8 8 8 7 7 7 7 7 8 8 8
26 26 27 25 23 22 21 21 20 15 17 16 9 10 9 9 8 9 9 8 8 7 7 6 6 6 6 7 7 6 6 6 7
26 28 27 26 24 24 23 20 14 14 12 11 11 10 9 8 5 8 7 8 7 6 6 5 5 5 5 6 5 5 5 5 5
24 25 25 24 20 21 22 15 15 13 12 11 10 9 9 9 6 7 6 6 6 5 4 3 3 2 3 3 4 4 4 4 4
27 30 26 24 22 20 18 16 15 14 12 10 9 8 8 7 8 4 5 5 5 5 4 4 3 2 1 0 2 3 2 2 2
31 33 28 26 22 20 18 16 14 13 11 10 9 8 6 6 6 6 5 6 6 6 6 6 5 5 4 3 2 1 1 2 2
33 38 33 25 22 21 19 18 16 14 12 10 9 8 8 7 6 7 7 8 8 8 9 9 8 8 7 6 5 4 3 1 4
35 40 33 24 23 22 20 18 15 14 12 10 8 8 8 8 9 9 8 9 10 10 11 11 11 11 10 9 8 8 6 6 6
29 37 28 25 23 21 20 18 15 12 10 9 8 7 8 8 9 8 9 11 13 13 13 15 15 14 13 12 11 10 11 11 11
31 31 28 28 24 21 20 20 18 15 13 7 6 8 9 10 10 11 11 10 13 14 14 15 15 14 14 16 15 14 12 14 15
30 33 29 28 23 21 21 19 19 15 14 5 6 2 5 4 8 9 8 7 10 14 15 15 16 15 16 17 17 17 17 16 15
34 28 31 28 25 24 23 22 18 15 12 13 5 2 1 1 6 8 7 9 11 11 13 16 18 16 17 16 23 19 19 18 19
33 31 28 28 27 25 25 22 18 14 10 11 11 10 5 3 5 5 8 13 17 18 20 19 19 22 24 23 24 21 19 19 19
35 33 31 28 28 27 24 21 18 17 15 9 6 6 6 9 12 12 15 20 24 24 23 21 21 22 21 20 21 21 23 23 18

GFSFLT1_850_spd_126.txt.gz
Wind_Speed
19 19 22 24 22 20 19 19 19 19 19 18 17 18 16 11 12 13 14 17 17 18 17 17 18 18 17 19 18 18 19 18 18
20 21 22 24 22 20 20 19 17 16 16 16 18 20 16 12 11 13 15 17 16 18 16 16 16 16 16 16 16 16 17 15 17
21 20 23 24 22 21 21 17 15 15 16 19 21 22 17 10 11 13 16 16 15 16 14 16 14 14 14 14 14 15 13 14 15
21 21 24 25 22 22 19 15 14 15 18 20 22 21 14 10 11 13 14 14 13 14 13 13 13 12 12 13 13 13 13 13 13
22 23 24 25 22 20 18 16 15 17 19 21 21 19 14 11 10 11 12 12 12 11 11 11 11 11 11 11 11 11 11 11 12
25 24 26 25 22 20 17 16 17 19 20 21 19 18 12 7 9 10 11 10 10 10 10 10 10 10 10 9 9 9 9 10 10
27 25 27 26 23 19 17 17 19 20 21 20 18 16 10 6 9 9 9 9 9 9 9 9 9 9 8 8 8 8 8 8 8
30 25 27 27 24 21 19 20 21 20 20 17 16 12 9 6 8 9 8 8 8 8 8 7 7 7 7 7 7 7 7 7 7
31 28 29 27 26 23 21 22 21 19 18 14 16 11 7 4 7 7 7 7 7 6 6 5 5 5 5 6 6 6 5 5 5
31 30 30 28 26 24 24 22 18 14 14 13 13 12 10 5 6 5 6 5 5 4 4 3 2 2 3 4 4 4 4 4 4
32 33 32 28 26 26 26 19 20 16 14 13 14 12 10 7 5 5 4 3 3 2 2 2 1 1 1 1 2 3 3 3 3
31 32 31 29 23 26 22 20 19 18 15 13 11 10 9 8 6 4 4 3 3 4 4 4 4 4 4 4 3 3 2 3 3
33 31 31 30 26 26 23 21 19 18 16 13 11 9 6 5 4 5 4 4 5 5 6 7 7 8 7 7 6 6 4 4 4
35 35 32 31 29 28 26 24 21 21 18 13 13 12 10 10 7 7 6 7 8 8 8 8 10 11 11 10 9 9 8 8 8
37 38 36 34 31 29 28 27 22 19 17 15 13 11 10 7 8 8 8 8 10 10 12 13 13 13 14 13 13 13 13 14 13
39 41 36 32 34 32 31 28 22 19 17 15 10 7 6 5 7 7 8 10 8 11 11 13 14 14 12 12 13 15 15 15 16
39 41 38 33 35 34 31 29 27 22 20 14 8 5 5 1 2 2 3 3 5 10 13 12 13 15 15 17 16 16 17 19 19
41 39 38 34 35 34 32 30 28 26 21 15 9 6 5 6 2 2 3 5 7 10 12 13 15 16 18 20 18 20 18 20 20
38 40 39 36 35 34 31 29 26 23 19 18 13 10 9 4 3 3 3 8 11 17 18 19 19 16 18 21 24 24 22 21 21
38 39 40 38 36 34 32 31 25 21 18 16 16 14 10 3 2 6 8 14 22 22 19 21 16 16 13 13 16 17 20 21 23